GFSMA_prec_precacc_111.txt.gz
Total_Precipitation_Accumulation
0.00 0.00 0.00 0.00 0.00 0.00 0.00 0.00 0.00 0.00 0.00 0.00 0.00 0.00 0.00 0.00 0.00 0.00 0.00 0.00 0.00 0.00 0.00 0.01 0.01 0.01 0.04 0.07 0.11 0.13 0.14 0.12 0.10 0.09 0.09 0.09 0.09 0.11 0.12 0.14 0.15 0.16 0.15
0.00 0.00 0.00 0.00 0.00 0.00 0.00 0.00 0.00 0.00 0.00 0.00 0.00 0.00 0.00 0.00 0.00 0.00 0.00 0.00 0.00 0.00 0.00 0.01 0.03 0.01 0.02 0.04 0.07 0.12 0.11 0.09 0.08 0.08 0.08 0.09 0.09 0.10 0.12 0.13 0.15 0.16 0.18
0.00 0.00 0.00 0.00 0.00 0.00 0.00 0.00 0.00 0.00 0.00 0.00 0.00 0.00 0.00 0.00 0.00 0.00 0.00 0.00 0.00 0.00 0.00 0.02 0.17 0.17 0.08 0.04 0.07 0.07 0.10 0.11 0.11 0.12 0.13 0.13 0.13 0.13 0.13 0.15 0.16 0.16 0.17
0.00 0.00 0.00 0.00 0.00 0.00 0.00 0.00 0.00 0.00 0.00 0.00 0.00 0.00 0.00 0.00 0.00 0.00 0.00 0.00 0.00 0.00 0.00 0.00 0.06 0.16 0.19 0.14 0.20 0.31 0.18 0.09 0.10 0.12 0.13 0.14 0.16 0.17 0.19 0.19 0.19 0.20 0.21
0.00 0.00 0.00 0.00 0.00 0.00 0.00 0.00 0.00 0.00 0.00 0.00 0.00 0.00 0.00 0.00 0.00 0.00 0.00 0.00 0.00 0.00 0.00 0.00 0.00 0.01 0.05 0.09 0.16 0.33 0.58 0.43 0.16 0.11 0.10 0.11 0.13 0.16 0.20 0.24 0.26 0.27 0.28
0.04 0.00 0.00 0.00 0.00 0.00 0.00 0.00 0.00 0.00 0.00 0.00 0.00 0.00 0.00 0.00 0.00 0.00 0.00 0.00 0.00 0.00 0.00 0.00 0.00 0.00 0.00 0.02 0.06 0.12 0.29 0.64 0.47 0.25 0.18 0.12 0.10 0.14 0.20 0.24 0.26 0.27 0.28
0.13 0.06 0.01 0.00 0.00 0.00 0.00 0.00 0.00 0.00 0.00 0.00 0.00 0.00 0.00 0.00 0.00 0.00 0.00 0.00 0.00 0.00 0.00 0.00 0.00 0.01 0.00 0.01 0.02 0.02 0.07 0.23 0.42 0.47 0.51 0.51 0.40 0.21 0.18 0.20 0.23 0.30 0.36
0.56 0.25 0.10 0.11 0.04 0.01 0.01 0.00 0.01 0.01 0.01 0.01 0.02 0.04 0.02 0.01 0.00 0.00 0.00 0.00 0.00 0.01 0.03 0.07 0.09 0.07 0.02 0.01 0.00 0.02 0.04 0.08 0.27 0.38 0.39 0.45 0.59 0.52 0.35 0.29 0.28 0.31 0.37
1.22 0.84 0.64 0.54 0.39 0.25 0.35 0.27 0.32 0.28 0.23 0.22 0.18 0.22 0.23 0.16 0.11 0.05 0.05 0.05 0.08 0.07 0.06 0.04 0.05 0.04 0.03 0.04 0.07 0.10 0.12 0.15 0.26 0.45 0.44 0.41 0.48 0.54 0.58 0.56 0.51 0.48 0.51
1.16 1.42 1.43 1.21 1.04 0.97 0.87 0.96 0.80 0.85 0.90 0.77 0.70 0.57 0.56 0.42 0.37 0.21 0.07 0.08 0.07 0.05 0.03 0.02 0.02 0.05 0.09 0.15 0.23 0.28 0.28 0.31 0.38 0.50 0.75 0.80 0.79 0.77 0.82 0.89 0.97 1.08 0.91
0.97 1.12 1.23 1.41 1.44 1.54 1.49 1.55 1.51 1.44 1.26 1.06 0.85 0.75 0.63 0.57 0.55 0.74 0.56 0.28 0.19 0.10 0.05 0.07 0.09 0.12 0.18 0.28 0.35 0.37 0.40 0.44 0.49 0.58 0.81 0.97 1.00 0.99 1.14 1.43 1.61 1.68 1.62
1.30 1.36 1.45 1.35 1.35 1.19 1.05 1.11 1.20 1.03 0.88 0.72 0.61 0.69 0.81 0.80 0.61 0.61 0.53 0.26 0.17 0.09 0.06 0.06 0.09 0.11 0.11 0.17 0.26 0.35 0.41 0.47 0.64 0.75 0.90 1.18 1.21 1.33 1.62 1.95 2.13 2.32 2.29
0.73 0.70 0.66 0.77 0.71 0.60 0.52 0.46 0.45 0.43 0.43 0.47 0.53 0.50 0.48 0.48 0.48 0.50 0.53 0.41 0.32 0.22 0.21 0.18 0.19 0.19 0.19 0.23 0.35 0.56 0.61 0.66 0.72 0.81 1.03 1.20 1.11 1.10 1.12 1.11 1.25 1.77 2.08
0.37 0.32 0.26 0.31 0.32 0.33 0.34 0.31 0.31 0.34 0.36 0.43 0.48 0.50 0.49 0.44 0.47 0.47 0.47 0.50 0.43 0.28 0.25 0.22 0.22 0.31 0.46 0.62 0.76 0.81 0.69 0.72 0.72 0.74 0.70 0.63 0.57 0.51 0.43 0.45 0.54 0.66 1.01
0.13 0.14 0.16 0.15 0.19 0.21 0.22 0.24 0.27 0.27 0.30 0.34 0.39 0.44 0.45 0.44 0.47 0.49 0.54 0.71 0.98 0.84 0.60 0.54 0.60 0.65 0.70 0.70 0.68 0.62 0.57 0.61 0.47 0.31 0.24 0.17 0.15 0.17 0.22 0.25 0.30 0.45 0.58
0.07 0.10 0.10 0.11 0.10 0.10 0.10 0.10 0.12 0.13 0.20 0.24 0.29 0.36 0.39 0.39 0.42 0.44 0.51 0.59 0.75 1.01 0.93 0.60 0.60 0.67 0.74 0.69 0.63 0.45 0.33 0.35 0.25 0.19 0.16 0.14 0.12 0.15 0.16 0.19 0.23 0.31 0.40
0.04 0.03 0.03 0.04 0.04 0.03 0.02 0.02 0.03 0.04 0.07 0.12 0.17 0.22 0.23 0.24 0.29 0.35 0.43 0.49 0.57 0.75 0.86 0.59 0.52 0.44 0.33 0.20 0.14 0.16 0.15 0.11 0.10 0.14 0.15 0.16 0.16 0.17 0.17 0.18 0.20 0.26 0.31
0.03 0.02 0.01 0.01 0.01 0.01 0.00 0.01 0.01 0.02 0.03 0.03 0.04 0.06 0.10 0.13 0.19 0.27 0.32 0.36 0.41 0.43 0.50 0.36 0.17 0.16 0.14 0.10 0.08 0.10 0.10 0.12 0.12 0.11 0.12 0.12 0.15 0.18 0.19 0.19 0.19 0.21 0.25
0.02 0.02 0.02 0.01 0.01 0.00 0.00 0.00 0.00 0.01 0.03 0.04 0.07 0.10 0.15 0.21 0.27 0.32 0.39 0.41 0.39 0.37 0.40 0.43 0.22 0.13 0.13 0.12 0.11 0.12 0.12 0.12 0.13 0.16 0.18 0.19 0.22 0.22 0.23 0.26 0.31 0.39 0.43
0.02 0.02 0.02 0.01 0.01 0.02 0.03 0.04 0.05 0.08 0.10 0.12 0.15 0.18 0.23 0.26 0.26 0.25 0.24 0.24 0.27 0.28 0.29 0.32 0.33 0.27 0.18 0.16 0.19 0.15 0.12 0.11 0.13 0.16 0.22 0.28 0.36 0.43 0.45 0.48 0.48 0.44 0.40
0.04 0.04 0.03 0.02 0.04 0.08 0.12 0.16 0.19 0.23 0.29 0.34 0.37 0.35 0.31 0.28 0.22 0.14 0.16 0.17 0.24 0.26 0.37 0.54 0.54 0.46 0.44 0.36 0.28 0.28 0.38 0.39 0.40 0.37 0.35 0.36 0.42 0.47 0.44 0.45 0.47 0.45 0.46
0.12 0.10 0.13 0.17 0.18 0.18 0.30 0.24 0.20 0.22 0.25 0.24 0.22 0.21 0.22 0.24 0.19 0.16 0.17 0.18 0.19 0.33 0.50 0.65 0.65 0.55 0.40 0.41 0.42 0.51 0.67 0.78 0.74 0.33 0.29 0.38 0.39 0.43 0.43 0.46 0.50 0.46 0.44
0.56 0.55 0.56 0.41 0.43 0.49 0.55 0.43 0.40 0.41 0.40 0.36 0.33 0.29 0.20 0.14 0.12 0.09 0.06 0.10 0.19 0.35 0.41 0.29 0.24 0.25 0.34 0.31 0.52 0.66 0.62 0.64 0.54 0.34 0.43 0.56 0.47 0.52 0.51 0.52 0.56 0.51 0.51
0.48 0.55 0.89 0.94 0.94 0.91 0.79 0.58 0.40 0.29 0.20 0.16 0.12 0.08 0.04 0.04 0.04 0.05 0.09 0.29 0.26 0.13 0.04 0.06 0.08 0.11 0.24 0.40 0.59 0.84 0.83 0.88 0.68 0.48 0.46 0.59 0.34 0.38 0.39 0.43 0.55 0.41 0.35
0.67 0.62 0.54 0.44 0.36 0.30 0.21 0.15 0.12 0.11 0.09 0.06 0.02 0.01 0.04 0.03 0.04 0.12 0.27 0.32 0.07 0.01 0.02 0.06 0.16 0.18 0.20 0.21 0.28 0.62 0.85 0.83 0.77 0.47 0.38 0.46 0.37 0.36 0.34 0.33 0.43 0.47 0.44
0.54 0.44 0.34 0.23 0.16 0.10 0.08 0.04 0.01 0.02 0.01 0.00 0.02 0.02 0.04 0.03 0.09 0.33 0.19 0.05 0.08 0.04 0.14 0.11 0.03 0.02 0.04 0.11 0.23 0.32 0.72 1.39 0.99 0.83 0.39 0.77 0.59 0.48 0.81 0.37 0.43 0.53 0.45

GFSMA_prec_precacc_114.txt.gz
Total_Precipitation_Accumulation
0.00 0.00 0.00 0.00 0.00 0.00 0.00 0.00 0.00 0.00 0.00 0.00 0.00 0.00 0.00 0.00 0.00 0.00 0.00 0.00 0.00 0.00 0.00 0.01 0.01 0.01 0.04 0.07 0.11 0.13 0.14 0.12 0.10 0.09 0.09 0.09 0.09 0.11 0.12 0.14 0.15 0.16 0.15
0.00 0.00 0.00 0.00 0.00 0.00 0.00 0.00 0.00 0.00 0.00 0.00 0.00 0.00 0.00 0.00 0.00 0.00 0.00 0.00 0.00 0.00 0.00 0.01 0.03 0.01 0.02 0.04 0.07 0.12 0.11 0.09 0.08 0.08 0.08 0.09 0.09 0.10 0.12 0.13 0.15 0.16 0.18
0.00 0.00 0.00 0.00 0.00 0.00 0.00 0.00 0.00 0.00 0.00 0.00 0.00 0.00 0.00 0.00 0.00 0.00 0.00 0.00 0.00 0.00 0.00 0.03 0.19 0.18 0.08 0.04 0.07 0.07 0.10 0.11 0.11 0.12 0.13 0.13 0.13 0.13 0.13 0.15 0.16 0.16 0.17
0.00 0.00 0.00 0.00 0.00 0.00 0.00 0.00 0.00 0.00 0.00 0.00 0.00 0.00 0.00 0.00 0.00 0.00 0.00 0.00 0.00 0.00 0.00 0.00 0.06 0.17 0.20 0.15 0.20 0.31 0.18 0.09 0.10 0.12 0.13 0.14 0.16 0.17 0.19 0.19 0.19 0.20 0.21
0.00 0.00 0.00 0.00 0.00 0.00 0.00 0.00 0.00 0.00 0.00 0.00 0.00 0.00 0.00 0.00 0.00 0.00 0.00 0.00 0.00 0.00 0.00 0.00 0.00 0.01 0.06 0.10 0.18 0.33 0.58 0.43 0.16 0.11 0.10 0.11 0.13 0.16 0.20 0.24 0.26 0.27 0.28
0.04 0.00 0.00 0.00 0.00 0.00 0.00 0.00 0.00 0.00 0.00 0.00 0.00 0.00 0.00 0.00 0.00 0.00 0.00 0.00 0.00 0.00 0.00 0.00 0.00 0.00 0.00 0.02 0.07 0.13 0.29 0.64 0.48 0.27 0.19 0.12 0.10 0.14 0.20 0.24 0.26 0.27 0.28
0.13 0.06 0.01 0.00 0.00 0.00 0.00 0.00 0.00 0.00 0.00 0.00 0.00 0.00 0.00 0.00 0.00 0.00 0.00 0.00 0.00 0.00 0.00 0.00 0.01 0.02 0.01 0.01 0.02 0.03 0.07 0.23 0.42 0.47 0.53 0.55 0.42 0.25 0.19 0.20 0.23 0.30 0.36
0.56 0.25 0.10 0.11 0.04 0.01 0.01 0.00 0.01 0.01 0.01 0.01 0.02 0.04 0.02 0.01 0.00 0.00 0.01 0.00 0.00 0.01 0.03 0.07 0.10 0.10 0.05 0.02 0.01 0.02 0.04 0.08 0.27 0.38 0.39 0.46 0.61 0.55 0.41 0.32 0.29 0.31 0.37
1.22 0.84 0.64 0.54 0.39 0.26 0.35 0.28 0.32 0.30 0.23 0.22 0.18 0.22 0.23 0.17 0.11 0.05 0.05 0.05 0.08 0.07 0.07 0.05 0.05 0.04 0.04 0.05 0.08 0.10 0.12 0.15 0.26 0.45 0.44 0.41 0.48 0.54 0.58 0.60 0.57 0.53 0.54
1.17 1.43 1.44 1.22 1.05 0.99 0.90 0.98 0.83 0.89 0.91 0.78 0.70 0.57 0.57 0.43 0.39 0.22 0.07 0.08 0.07 0.06 0.05 0.03 0.03 0.05 0.09 0.15 0.25 0.34 0.31 0.31 0.38 0.50 0.75 0.80 0.79 0.77 0.82 0.90 0.99 1.14 1.03
1.01 1.16 1.26 1.43 1.52 1.61 1.56 1.61 1.58 1.47 1.28 1.06 0.85 0.76 0.64 0.57 0.56 0.76 0.59 0.31 0.25 0.13 0.06 0.07 0.09 0.12 0.18 0.28 0.37 0.42 0.44 0.45 0.49 0.58 0.81 0.97 1.00 0.99 1.14 1.43 1.61 1.69 1.69
1.35 1.43 1.53 1.44 1.48 1.30 1.11 1.13 1.22 1.06 0.88 0.72 0.62 0.69 0.81 0.80 0.62 0.62 0.53 0.26 0.17 0.09 0.06 0.06 0.09 0.11 0.12 0.17 0.26 0.36 0.45 0.53 0.67 0.75 0.90 1.18 1.21 1.33 1.63 1.96 2.13 2.32 2.30
0.76 0.78 0.78 0.95 0.98 0.87 0.62 0.47 0.47 0.46 0.44 0.48 0.54 0.52 0.49 0.49 0.48 0.50 0.54 0.42 0.32 0.22 0.21 0.18 0.19 0.20 0.19 0.23 0.36 0.56 0.64 0.73 0.77 0.82 1.05 1.20 1.11 1.10 1.12 1.11 1.25 1.77 2.10
0.48 0.53 0.45 0.56 0.50 0.49 0.39 0.32 0.32 0.34 0.37 0.43 0.49 0.50 0.49 0.44 0.47 0.48 0.47 0.51 0.44 0.29 0.25 0.22 0.22 0.31 0.46 0.62 0.77 0.82 0.73 0.79 0.77 0.76 0.71 0.63 0.57 0.51 0.43 0.45 0.54 0.67 1.02
0.48 0.42 0.49 0.30 0.30 0.25 0.23 0.24 0.27 0.27 0.30 0.34 0.39 0.44 0.45 0.44 0.47 0.49 0.55 0.71 0.99 0.84 0.60 0.54 0.60 0.65 0.70 0.70 0.69 0.64 0.62 0.67 0.51 0.33 0.24 0.18 0.15 0.17 0.22 0.25 0.30 0.46 0.58
0.34 0.26 0.21 0.20 0.15 0.10 0.10 0.10 0.12 0.13 0.20 0.24 0.29 0.36 0.39 0.39 0.42 0.44 0.51 0.59 0.75 1.01 0.93 0.60 0.60 0.67 0.74 0.69 0.63 0.45 0.34 0.36 0.28 0.23 0.20 0.16 0.12 0.15 0.16 0.19 0.23 0.32 0.45
0.14 0.09 0.06 0.05 0.04 0.03 0.02 0.02 0.03 0.04 0.07 0.12 0.17 0.22 0.23 0.24 0.29 0.35 0.43 0.49 0.57 0.75 0.86 0.59 0.52 0.44 0.33 0.20 0.14 0.16 0.15 0.12 0.11 0.16 0.16 0.16 0.16 0.17 0.17 0.18 0.20 0.26 0.33
0.05 0.02 0.01 0.01 0.01 0.01 0.00 0.01 0.01 0.02 0.03 0.03 0.04 0.06 0.10 0.13 0.19 0.27 0.32 0.36 0.41 0.44 0.50 0.36 0.17 0.16 0.14 0.11 0.08 0.10 0.10 0.12 0.12 0.12 0.12 0.12 0.15 0.18 0.19 0.19 0.19 0.21 0.25
0.02 0.02 0.02 0.01 0.01 0.00 0.00 0.00 0.00 0.01 0.03 0.04 0.07 0.10 0.15 0.21 0.27 0.32 0.39 0.41 0.39 0.37 0.40 0.43 0.22 0.13 0.13 0.12 0.12 0.12 0.13 0.14 0.14 0.18 0.19 0.19 0.22 0.22 0.23 0.26 0.31 0.39 0.43
0.02 0.02 0.02 0.01 0.01 0.02 0.03 0.04 0.05 0.08 0.10 0.12 0.15 0.18 0.23 0.26 0.26 0.25 0.24 0.24 0.27 0.28 0.29 0.32 0.33 0.27 0.18 0.16 0.19 0.16 0.13 0.12 0.14 0.17 0.24 0.29 0.36 0.43 0.45 0.48 0.48 0.44 0.40
0.04 0.04 0.03 0.02 0.04 0.08 0.12 0.16 0.19 0.23 0.29 0.34 0.37 0.35 0.31 0.28 0.22 0.14 0.16 0.17 0.24 0.26 0.37 0.54 0.54 0.47 0.44 0.36 0.29 0.29 0.39 0.40 0.40 0.37 0.36 0.36 0.42 0.47 0.44 0.45 0.47 0.45 0.46
0.12 0.10 0.13 0.17 0.18 0.18 0.30 0.24 0.20 0.22 0.25 0.24 0.22 0.21 0.22 0.24 0.19 0.16 0.17 0.18 0.19 0.33 0.50 0.65 0.65 0.55 0.40 0.41 0.42 0.52 0.68 0.79 0.74 0.33 0.29 0.38 0.39 0.43 0.43 0.46 0.50 0.46 0.44
0.56 0.55 0.56 0.41 0.43 0.49 0.55 0.43 0.40 0.41 0.40 0.36 0.33 0.29 0.20 0.14 0.12 0.09 0.06 0.10 0.19 0.35 0.41 0.29 0.24 0.25 0.34 0.31 0.52 0.66 0.63 0.64 0.55 0.34 0.43 0.56 0.47 0.52 0.51 0.52 0.56 0.51 0.51
0.48 0.55 0.89 0.94 0.94 0.91 0.79 0.58 0.40 0.29 0.20 0.16 0.12 0.08 0.04 0.04 0.04 0.05 0.09 0.29 0.26 0.13 0.04 0.06 0.08 0.11 0.24 0.40 0.59 0.84 0.83 0.89 0.68 0.48 0.46 0.59 0.34 0.38 0.39 0.43 0.55 0.41 0.35
0.67 0.62 0.54 0.44 0.36 0.30 0.21 0.15 0.12 0.11 0.09 0.06 0.02 0.01 0.04 0.03 0.04 0.12 0.27 0.32 0.07 0.01 0.02 0.06 0.16 0.18 0.21 0.22 0.28 0.62 0.85 0.83 0.77 0.47 0.38 0.46 0.37 0.36 0.34 0.33 0.43 0.47 0.44
0.54 0.44 0.34 0.23 0.16 0.10 0.08 0.04 0.01 0.02 0.01 0.00 0.02 0.02 0.04 0.03 0.09 0.33 0.19 0.05 0.08 0.04 0.14 0.11 0.03 0.02 0.04 0.11 0.23 0.32 0.72 1.40 0.99 0.83 0.39 0.77 0.59 0.48 0.81 0.37 0.43 0.53 0.45

GFSMA_prec_precacc_117.txt.gz
Total_Precipitation_Accumulation
0.00 0.00 0.00 0.00 0.00 0.00 0.00 0.00 0.00 0.00 0.00 0.00 0.00 0.00 0.00 0.00 0.00 0.00 0.00 0.00 0.00 0.00 0.00 0.01 0.01 0.01 0.04 0.07 0.11 0.13 0.14 0.12 0.10 0.09 0.09 0.09 0.09 0.11 0.12 0.14 0.15 0.16 0.15
0.00 0.00 0.00 0.00 0.00 0.00 0.00 0.00 0.00 0.00 0.00 0.00 0.00 0.00 0.00 0.00 0.00 0.00 0.00 0.00 0.00 0.00 0.00 0.01 0.03 0.01 0.02 0.04 0.07 0.12 0.11 0.09 0.08 0.08 0.08 0.09 0.09 0.10 0.12 0.13 0.15 0.16 0.18
0.00 0.00 0.00 0.00 0.00 0.00 0.00 0.00 0.00 0.00 0.00 0.00 0.00 0.00 0.00 0.00 0.00 0.00 0.00 0.00 0.00 0.00 0.00 0.03 0.20 0.18 0.08 0.04 0.07 0.07 0.10 0.11 0.11 0.12 0.13 0.13 0.13 0.13 0.13 0.15 0.16 0.16 0.17
0.00 0.00 0.00 0.00 0.00 0.00 0.00 0.00 0.00 0.00 0.00 0.00 0.00 0.00 0.00 0.00 0.00 0.00 0.00 0.00 0.00 0.00 0.00 0.00 0.06 0.18 0.21 0.15 0.22 0.31 0.18 0.09 0.10 0.12 0.13 0.14 0.16 0.17 0.19 0.19 0.19 0.20 0.21
0.00 0.00 0.00 0.00 0.00 0.00 0.00 0.00 0.00 0.00 0.00 0.00 0.00 0.00 0.00 0.00 0.00 0.00 0.00 0.00 0.00 0.00 0.00 0.00 0.00 0.01 0.07 0.11 0.20 0.35 0.60 0.45 0.18 0.12 0.10 0.11 0.13 0.16 0.20 0.24 0.26 0.27 0.28
0.04 0.00 0.00 0.00 0.00 0.00 0.00 0.00 0.00 0.00 0.00 0.00 0.00 0.00 0.00 0.00 0.00 0.00 0.00 0.00 0.00 0.00 0.00 0.00 0.00 0.00 0.00 0.02 0.08 0.17 0.31 0.65 0.50 0.31 0.22 0.13 0.11 0.14 0.20 0.24 0.26 0.27 0.28
0.13 0.06 0.01 0.00 0.00 0.00 0.00 0.00 0.00 0.00 0.00 0.00 0.00 0.00 0.00 0.00 0.00 0.00 0.00 0.00 0.00 0.00 0.00 0.01 0.02 0.03 0.01 0.01 0.02 0.03 0.07 0.23 0.42 0.47 0.54 0.59 0.46 0.29 0.22 0.21 0.23 0.30 0.36
0.56 0.25 0.10 0.11 0.04 0.01 0.01 0.00 0.01 0.01 0.01 0.01 0.02 0.04 0.02 0.01 0.00 0.00 0.01 0.00 0.00 0.01 0.03 0.07 0.11 0.10 0.06 0.03 0.02 0.03 0.04 0.09 0.27 0.38 0.39 0.46 0.63 0.58 0.47 0.37 0.32 0.32 0.37
1.22 0.84 0.64 0.54 0.39 0.26 0.35 0.28 0.32 0.30 0.23 0.22 0.18 0.22 0.23 0.18 0.12 0.05 0.05 0.05 0.08 0.07 0.07 0.05 0.05 0.05 0.04 0.05 0.09 0.11 0.14 0.18 0.30 0.46 0.44 0.42 0.48 0.54 0.61 0.65 0.65 0.60 0.60
1.17 1.43 1.44 1.22 1.05 0.99 0.90 0.98 0.83 0.90 0.95 0.80 0.70 0.57 0.57 0.44 0.41 0.23 0.07 0.08 0.07 0.06 0.06 0.03 0.03 0.05 0.09 0.16 0.26 0.35 0.40 0.40 0.40 0.50 0.75 0.80 0.79 0.77 0.82 0.91 1.02 1.19 1.09
1.01 1.17 1.27 1.44 1.52 1.62 1.57 1.62 1.60 1.48 1.29 1.07 0.85 0.76 0.64 0.57 0.57 0.76 0.59 0.31 0.25 0.13 0.06 0.07 0.09 0.12 0.18 0.28 0.37 0.42 0.45 0.46 0.51 0.60 0.83 0.97 1.00 0.99 1.14 1.43 1.61 1.69 1.71
1.38 1.45 1.56 1.46 1.50 1.32 1.16 1.23 1.33 1.09 0.88 0.72 0.62 0.71 0.83 0.81 0.62 0.62 0.53 0.26 0.17 0.09 0.06 0.06 0.09 0.11 0.12 0.17 0.26 0.36 0.45 0.54 0.70 0.80 0.95 1.20 1.22 1.34 1.63 1.96 2.13 2.32 2.30
0.78 0.81 0.81 0.98 1.04 0.95 0.71 0.60 0.56 0.48 0.45 0.49 0.55 0.53 0.51 0.50 0.49 0.50 0.54 0.42 0.32 0.22 0.21 0.18 0.19 0.20 0.19 0.23 0.36 0.56 0.64 0.73 0.78 0.87 1.12 1.31 1.13 1.11 1.12 1.11 1.25 1.77 2.10
0.49 0.53 0.45 0.62 0.68 0.64 0.58 0.42 0.34 0.36 0.39 0.45 0.50 0.51 0.50 0.44 0.47 0.48 0.47 0.52 0.44 0.29 0.25 0.22 0.22 0.31 0.46 0.62 0.77 0.82 0.73 0.79 0.78 0.83 0.83 0.75 0.60 0.52 0.43 0.45 0.54 0.67 1.02
0.58 0.44 0.53 0.41 0.44 0.47 0.40 0.33 0.31 0.29 0.32 0.35 0.39 0.44 0.45 0.44 0.47 0.49 0.55 0.72 0.99 0.84 0.60 0.54 0.60 0.65 0.70 0.70 0.69 0.64 0.62 0.67 0.53 0.35 0.25 0.19 0.16 0.19 0.24 0.25 0.30 0.46 0.58
0.60 0.53 0.40 0.37 0.32 0.36 0.43 0.18 0.13 0.13 0.20 0.24 0.29 0.36 0.39 0.39 0.42 0.44 0.51 0.59 0.75 1.01 0.93 0.60 0.60 0.67 0.74 0.69 0.63 0.45 0.34 0.36 0.29 0.25 0.22 0.19 0.16 0.17 0.18 0.19 0.23 0.32 0.46
0.33 0.33 0.31 0.25 0.17 0.13 0.11 0.05 0.03 0.04 0.07 0.12 0.17 0.22 0.23 0.24 0.29 0.35 0.43 0.49 0.57 0.75 0.86 0.59 0.52 0.44 0.33 0.20 0.14 0.16 0.15 0.12 0.11 0.17 0.17 0.17 0.16 0.17 0.17 0.18 0.20 0.26 0.34
0.17 0.13 0.13 0.13 0.10 0.05 0.01 0.01 0.01 0.02 0.03 0.03 0.04 0.06 0.10 0.13 0.19 0.27 0.32 0.36 0.41 0.44 0.50 0.37 0.17 0.16 0.14 0.11 0.08 0.10 0.10 0.12 0.12 0.13 0.13 0.13 0.15 0.18 0.20 0.19 0.19 0.21 0.26
0.10 0.08 0.06 0.05 0.03 0.01 0.00 0.00 0.00 0.01 0.03 0.04 0.07 0.10 0.15 0.21 0.27 0.32 0.39 0.41 0.39 0.37 0.40 0.43 0.22 0.13 0.13 0.12 0.12 0.12 0.13 0.14 0.14 0.21 0.20 0.20 0.23 0.23 0.23 0.27 0.32 0.40 0.43
0.09 0.06 0.03 0.02 0.01 0.02 0.03 0.04 0.05 0.08 0.10 0.12 0.15 0.18 0.23 0.26 0.26 0.25 0.24 0.24 0.27 0.28 0.29 0.32 0.33 0.27 0.18 0.16 0.19 0.16 0.13 0.12 0.14 0.18 0.26 0.31 0.38 0.43 0.45 0.48 0.49 0.44 0.40
0.07 0.05 0.03 0.02 0.04 0.08 0.12 0.16 0.19 0.23 0.29 0.34 0.37 0.35 0.31 0.28 0.22 0.14 0.16 0.17 0.24 0.26 0.37 0.54 0.54 0.47 0.44 0.37 0.30 0.29 0.40 0.41 0.42 0.39 0.37 0.37 0.43 0.47 0.44 0.45 0.47 0.45 0.46
0.13 0.10 0.13 0.17 0.18 0.18 0.30 0.24 0.20 0.22 0.25 0.24 0.22 0.21 0.22 0.24 0.19 0.16 0.17 0.18 0.19 0.33 0.50 0.65 0.65 0.55 0.40 0.41 0.43 0.53 0.68 0.80 0.75 0.34 0.29 0.38 0.39 0.43 0.43 0.46 0.50 0.46 0.44
0.56 0.55 0.56 0.41 0.43 0.49 0.55 0.43 0.40 0.41 0.40 0.36 0.33 0.29 0.20 0.14 0.12 0.09 0.06 0.10 0.19 0.35 0.41 0.29 0.24 0.25 0.34 0.31 0.52 0.66 0.63 0.65 0.55 0.34 0.43 0.56 0.47 0.52 0.51 0.52 0.56 0.51 0.51
0.48 0.55 0.89 0.94 0.94 0.91 0.79 0.58 0.40 0.29 0.20 0.16 0.12 0.08 0.04 0.04 0.04 0.05 0.09 0.29 0.26 0.13 0.04 0.06 0.08 0.11 0.24 0.40 0.59 0.84 0.83 0.89 0.68 0.48 0.46 0.59 0.34 0.38 0.39 0.43 0.55 0.41 0.35
0.67 0.62 0.54 0.44 0.36 0.30 0.21 0.15 0.12 0.11 0.09 0.06 0.02 0.01 0.04 0.03 0.04 0.12 0.27 0.32 0.07 0.01 0.02 0.06 0.16 0.18 0.21 0.22 0.28 0.62 0.85 0.83 0.77 0.47 0.38 0.46 0.37 0.36 0.34 0.33 0.43 0.47 0.44
0.54 0.44 0.34 0.23 0.16 0.10 0.08 0.04 0.01 0.02 0.01 0.00 0.02 0.02 0.04 0.03 0.09 0.33 0.19 0.05 0.08 0.04 0.14 0.11 0.03 0.02 0.04 0.11 0.24 0.32 0.72 1.40 1.00 0.83 0.39 0.77 0.59 0.48 0.81 0.37 0.43 0.53 0.45

GFSMA_prec_precacc_120.txt.gz
Total_Precipitation_Accumulation
0.00 0.01 0.00 0.00 0.00 0.00 0.00 0.00 0.00 0.00 0.00 0.00 0.00 0.00 0.00 0.00 0.00 0.00 0.00 0.00 0.00 0.00 0.00 0.01 0.01 0.01 0.04 0.07 0.11 0.13 0.14 0.12 0.10 0.09 0.09 0.09 0.09 0.11 0.12 0.14 0.15 0.16 0.15
0.00 0.00 0.00 0.00 0.00 0.00 0.00 0.00 0.00 0.00 0.00 0.00 0.00 0.00 0.00 0.00 0.00 0.00 0.00 0.00 0.00 0.00 0.00 0.01 0.03 0.01 0.02 0.04 0.07 0.12 0.11 0.09 0.08 0.08 0.08 0.09 0.09 0.10 0.12 0.13 0.15 0.16 0.18
0.00 0.00 0.00 0.00 0.00 0.00 0.00 0.00 0.00 0.00 0.00 0.00 0.00 0.00 0.00 0.00 0.00 0.00 0.00 0.00 0.00 0.00 0.00 0.03 0.21 0.19 0.08 0.04 0.07 0.07 0.10 0.11 0.11 0.12 0.13 0.13 0.13 0.13 0.13 0.15 0.16 0.16 0.17
0.00 0.00 0.00 0.00 0.00 0.00 0.00 0.00 0.00 0.00 0.00 0.00 0.00 0.00 0.00 0.00 0.00 0.00 0.00 0.00 0.00 0.00 0.00 0.00 0.08 0.22 0.24 0.16 0.24 0.33 0.20 0.10 0.10 0.12 0.13 0.14 0.16 0.17 0.19 0.19 0.19 0.20 0.21
0.00 0.00 0.00 0.00 0.00 0.00 0.00 0.00 0.00 0.00 0.00 0.00 0.00 0.00 0.00 0.00 0.00 0.00 0.00 0.00 0.00 0.00 0.00 0.00 0.00 0.02 0.09 0.17 0.29 0.43 0.71 0.56 0.24 0.16 0.12 0.11 0.13 0.16 0.20 0.24 0.26 0.27 0.28
0.04 0.00 0.00 0.00 0.00 0.00 0.00 0.00 0.00 0.00 0.00 0.00 0.00 0.00 0.00 0.00 0.00 0.00 0.00 0.00 0.00 0.00 0.00 0.00 0.00 0.00 0.00 0.02 0.11 0.22 0.34 0.67 0.51 0.35 0.27 0.19 0.14 0.16 0.20 0.24 0.26 0.27 0.28
0.13 0.06 0.01 0.00 0.00 0.00 0.00 0.00 0.00 0.00 0.00 0.00 0.00 0.00 0.00 0.00 0.00 0.00 0.00 0.00 0.00 0.00 0.00 0.01 0.03 0.06 0.03 0.04 0.03 0.04 0.09 0.23 0.42 0.47 0.54 0.61 0.51 0.37 0.29 0.24 0.24 0.30 0.36
0.56 0.25 0.10 0.11 0.04 0.01 0.01 0.00 0.01 0.01 0.01 0.01 0.02 0.04 0.03 0.01 0.00 0.00 0.01 0.00 0.00 0.01 0.03 0.07 0.12 0.12 0.07 0.04 0.03 0.04 0.05 0.09 0.28 0.39 0.40 0.47 0.64 0.60 0.53 0.45 0.40 0.36 0.38
1.22 0.84 0.64 0.54 0.39 0.26 0.35 0.28 0.32 0.30 0.23 0.22 0.18 0.23 0.23 0.19 0.14 0.05 0.05 0.05 0.08 0.07 0.07 0.05 0.05 0.05 0.04 0.05 0.09 0.11 0.14 0.18 0.32 0.50 0.46 0.42 0.49 0.55 0.61 0.67 0.70 0.68 0.68
1.17 1.43 1.44 1.22 1.05 0.99 0.90 0.98 0.83 0.91 0.98 0.85 0.72 0.57 0.57 0.45 0.41 0.23 0.07 0.08 0.07 0.06 0.06 0.03 0.03 0.05 0.09 0.16 0.26 0.35 0.40 0.40 0.41 0.51 0.76 0.81 0.80 0.77 0.82 0.91 1.02 1.21 1.17
1.01 1.17 1.27 1.44 1.52 1.62 1.57 1.62 1.60 1.48 1.30 1.07 0.85 0.77 0.64 0.57 0.57 0.76 0.59 0.31 0.25 0.13 0.06 0.07 0.09 0.12 0.18 0.28 0.37 0.42 0.45 0.46 0.51 0.60 0.84 0.99 1.01 0.99 1.14 1.43 1.62 1.70 1.72
1.38 1.45 1.56 1.46 1.50 1.32 1.16 1.23 1.34 1.10 0.89 0.72 0.63 0.71 0.83 0.82 0.62 0.62 0.53 0.26 0.17 0.09 0.06 0.06 0.09 0.11 0.12 0.17 0.26 0.36 0.45 0.54 0.70 0.80 0.95 1.21 1.23 1.34 1.63 1.96 2.13 2.32 2.30
0.78 0.81 0.81 0.98 1.05 0.95 0.72 0.61 0.57 0.50 0.45 0.49 0.56 0.54 0.53 0.52 0.50 0.50 0.54 0.42 0.32 0.22 0.21 0.18 0.19 0.20 0.19 0.23 0.36 0.56 0.64 0.73 0.78 0.87 1.12 1.32 1.15 1.11 1.12 1.11 1.25 1.77 2.10
0.49 0.53 0.45 0.62 0.70 0.65 0.59 0.42 0.35 0.38 0.40 0.46 0.50 0.52 0.51 0.44 0.47 0.48 0.47 0.52 0.44 0.29 0.25 0.22 0.22 0.31 0.46 0.62 0.77 0.82 0.73 0.79 0.79 0.83 0.85 0.79 0.61 0.52 0.44 0.45 0.54 0.67 1.02
0.62 0.46 0.53 0.44 0.47 0.47 0.41 0.36 0.34 0.32 0.33 0.36 0.40 0.45 0.45 0.44 0.47 0.49 0.55 0.72 1.00 0.84 0.60 0.54 0.60 0.65 0.70 0.70 0.69 0.64 0.62 0.68 0.54 0.37 0.28 0.21 0.17 0.20 0.25 0.28 0.31 0.46 0.58
0.64 0.56 0.43 0.39 0.33 0.37 0.45 0.27 0.20 0.19 0.21 0.24 0.29 0.36 0.39 0.39 0.42 0.44 0.51 0.59 0.75 1.01 0.93 0.60 0.60 0.67 0.74 0.69 0.63 0.45 0.34 0.37 0.30 0.27 0.23 0.20 0.16 0.18 0.20 0.21 0.24 0.32 0.46
0.38 0.41 0.38 0.32 0.23 0.17 0.18 0.27 0.14 0.08 0.08 0.12 0.17 0.22 0.23 0.24 0.29 0.35 0.43 0.49 0.57 0.76 0.86 0.59 0.52 0.44 0.33 0.20 0.14 0.16 0.15 0.12 0.12 0.19 0.18 0.18 0.17 0.17 0.17 0.18 0.20 0.26 0.34
0.30 0.24 0.24 0.29 0.22 0.15 0.11 0.12 0.11 0.05 0.03 0.03 0.04 0.06 0.10 0.13 0.19 0.27 0.32 0.36 0.41 0.44 0.50 0.37 0.17 0.16 0.14 0.11 0.08 0.10 0.10 0.12 0.12 0.15 0.14 0.13 0.16 0.19 0.21 0.20 0.19 0.21 0.26
0.20 0.16 0.12 0.13 0.12 0.09 0.07 0.05 0.05 0.03 0.03 0.04 0.07 0.10 0.15 0.21 0.27 0.32 0.39 0.41 0.39 0.37 0.40 0.43 0.22 0.13 0.13 0.12 0.12 0.12 0.13 0.14 0.15 0.23 0.21 0.21 0.23 0.23 0.24 0.27 0.32 0.40 0.44
0.11 0.08 0.06 0.06 0.06 0.05 0.05 0.05 0.05 0.08 0.10 0.12 0.15 0.18 0.23 0.26 0.26 0.25 0.24 0.24 0.27 0.28 0.29 0.32 0.33 0.27 0.18 0.16 0.19 0.16 0.13 0.12 0.14 0.18 0.27 0.32 0.39 0.44 0.46 0.48 0.49 0.44 0.40
0.10 0.08 0.06 0.05 0.06 0.09 0.13 0.16 0.19 0.23 0.29 0.34 0.37 0.35 0.31 0.28 0.22 0.14 0.16 0.17 0.24 0.26 0.37 0.54 0.54 0.47 0.44 0.37 0.30 0.29 0.40 0.41 0.42 0.39 0.38 0.39 0.44 0.49 0.45 0.45 0.47 0.45 0.46
0.18 0.16 0.16 0.19 0.19 0.18 0.30 0.24 0.20 0.22 0.25 0.24 0.22 0.21 0.22 0.24 0.19 0.16 0.17 0.18 0.19 0.33 0.50 0.65 0.65 0.55 0.40 0.41 0.43 0.53 0.70 0.80 0.76 0.34 0.29 0.39 0.40 0.44 0.43 0.46 0.50 0.46 0.44
0.62 0.62 0.61 0.42 0.44 0.50 0.55 0.43 0.40 0.41 0.40 0.36 0.33 0.29 0.20 0.14 0.12 0.09 0.06 0.10 0.19 0.35 0.41 0.29 0.24 0.25 0.34 0.31 0.52 0.66 0.63 0.66 0.56 0.35 0.44 0.56 0.47 0.52 0.51 0.52 0.57 0.51 0.51
0.49 0.58 0.91 0.95 0.95 0.91 0.79 0.58 0.40 0.29 0.20 0.16 0.12 0.08 0.04 0.04 0.04 0.05 0.09 0.29 0.26 0.13 0.04 0.06 0.08 0.11 0.24 0.40 0.59 0.85 0.83 0.89 0.68 0.49 0.46 0.59 0.34 0.38 0.39 0.43 0.55 0.41 0.35
0.68 0.62 0.54 0.44 0.36 0.30 0.21 0.15 0.12 0.11 0.09 0.06 0.02 0.01 0.04 0.03 0.04 0.12 0.27 0.32 0.07 0.01 0.02 0.06 0.16 0.18 0.21 0.22 0.28 0.63 0.85 0.83 0.77 0.47 0.38 0.46 0.37 0.36 0.34 0.33 0.43 0.47 0.44
0.55 0.44 0.34 0.23 0.16 0.10 0.08 0.04 0.01 0.02 0.01 0.00 0.02 0.02 0.04 0.03 0.09 0.33 0.19 0.05 0.08 0.04 0.14 0.11 0.03 0.02 0.04 0.11 0.24 0.33 0.72 1.40 1.00 0.83 0.39 0.77 0.59 0.49 0.81 0.37 0.43 0.53 0.45

GFSMA_prec_precacc_123.txt.gz
Total_Precipitation_Accumulation
0.01 0.01 0.00 0.00 0.00 0.00 0.00 0.00 0.00 0.00 0.00 0.00 0.00 0.00 0.00 0.00 0.00 0.00 0.00 0.00 0.00 0.00 0.00 0.01 0.01 0.01 0.04 0.07 0.11 0.13 0.14 0.12 0.10 0.09 0.09 0.09 0.09 0.11 0.12 0.14 0.15 0.16 0.15
0.00 0.00 0.00 0.00 0.00 0.00 0.00 0.00 0.00 0.00 0.00 0.00 0.00 0.00 0.00 0.00 0.00 0.00 0.00 0.00 0.00 0.00 0.00 0.01 0.03 0.01 0.02 0.04 0.07 0.12 0.11 0.09 0.08 0.08 0.08 0.09 0.09 0.10 0.12 0.13 0.15 0.16 0.18
0.00 0.00 0.00 0.00 0.00 0.00 0.00 0.00 0.00 0.00 0.00 0.00 0.00 0.00 0.00 0.00 0.00 0.00 0.00 0.00 0.00 0.00 0.00 0.03 0.21 0.19 0.08 0.04 0.07 0.07 0.10 0.11 0.11 0.12 0.13 0.13 0.13 0.13 0.13 0.15 0.16 0.16 0.17
0.00 0.00 0.00 0.00 0.00 0.00 0.00 0.00 0.00 0.00 0.00 0.00 0.00 0.00 0.00 0.00 0.00 0.00 0.00 0.00 0.00 0.00 0.00 0.00 0.08 0.24 0.26 0.20 0.29 0.42 0.27 0.16 0.12 0.12 0.13 0.14 0.16 0.17 0.19 0.19 0.19 0.20 0.21
0.00 0.00 0.00 0.00 0.00 0.00 0.00 0.00 0.00 0.00 0.00 0.00 0.00 0.00 0.00 0.00 0.00 0.00 0.00 0.00 0.00 0.00 0.00 0.00 0.00 0.03 0.10 0.19 0.34 0.49 0.82 0.63 0.28 0.20 0.15 0.13 0.13 0.16 0.20 0.24 0.26 0.27 0.28
0.04 0.00 0.00 0.00 0.00 0.00 0.00 0.00 0.00 0.00 0.00 0.00 0.00 0.00 0.00 0.00 0.00 0.00 0.00 0.00 0.00 0.00 0.00 0.00 0.00 0.00 0.00 0.02 0.11 0.23 0.39 0.69 0.51 0.35 0.28 0.22 0.18 0.19 0.22 0.25 0.26 0.27 0.28
0.13 0.06 0.01 0.00 0.00 0.00 0.00 0.00 0.00 0.00 0.00 0.00 0.00 0.00 0.00 0.00 0.00 0.00 0.00 0.00 0.00 0.00 0.00 0.01 0.03 0.06 0.03 0.05 0.03 0.05 0.11 0.25 0.42 0.47 0.55 0.62 0.51 0.38 0.32 0.30 0.29 0.31 0.36
0.56 0.25 0.10 0.11 0.04 0.01 0.01 0.00 0.01 0.01 0.01 0.01 0.02 0.04 0.03 0.01 0.00 0.00 0.01 0.00 0.00 0.01 0.03 0.07 0.12 0.12 0.07 0.04 0.03 0.04 0.05 0.09 0.28 0.41 0.42 0.48 0.65 0.60 0.53 0.46 0.46 0.45 0.45
1.22 0.84 0.64 0.54 0.39 0.26 0.35 0.28 0.32 0.30 0.23 0.22 0.18 0.23 0.23 0.19 0.14 0.05 0.05 0.05 0.08 0.07 0.07 0.05 0.05 0.05 0.04 0.05 0.09 0.11 0.14 0.18 0.32 0.51 0.46 0.43 0.50 0.56 0.62 0.67 0.71 0.71 0.78
1.17 1.43 1.44 1.22 1.05 0.99 0.90 0.98 0.83 0.91 0.98 0.85 0.72 0.57 0.57 0.45 0.41 0.23 0.07 0.08 0.07 0.06 0.06 0.03 0.03 0.05 0.09 0.16 0.26 0.35 0.40 0.40 0.41 0.51 0.76 0.81 0.80 0.80 0.83 0.93 1.05 1.24 1.21
1.01 1.17 1.27 1.44 1.52 1.62 1.57 1.62 1.60 1.48 1.30 1.07 0.85 0.77 0.64 0.57 0.57 0.76 0.59 0.31 0.25 0.13 0.06 0.07 0.09 0.12 0.18 0.28 0.37 0.42 0.45 0.46 0.51 0.60 0.84 0.99 1.03 1.01 1.16 1.46 1.62 1.70 1.72
1.38 1.46 1.56 1.46 1.50 1.32 1.16 1.23 1.34 1.10 0.89 0.72 0.63 0.71 0.83 0.82 0.62 0.62 0.53 0.26 0.17 0.09 0.06 0.06 0.09 0.11 0.12 0.17 0.26 0.36 0.45 0.54 0.70 0.80 0.95 1.22 1.26 1.35 1.64 1.96 2.13 2.32 2.30
0.78 0.82 0.82 0.98 1.05 0.95 0.72 0.61 0.58 0.51 0.46 0.49 0.56 0.54 0.53 0.52 0.50 0.50 0.54 0.42 0.32 0.22 0.21 0.18 0.19 0.20 0.19 0.23 0.36 0.56 0.64 0.73 0.78 0.87 1.12 1.33 1.17 1.12 1.12 1.11 1.25 1.77 2.10
0.49 0.53 0.45 0.62 0.70 0.65 0.60 0.42 0.36 0.38 0.40 0.46 0.50 0.52 0.51 0.44 0.47 0.48 0.47 0.52 0.44 0.29 0.25 0.22 0.22 0.31 0.46 0.62 0.77 0.82 0.73 0.79 0.79 0.84 0.85 0.80 0.62 0.53 0.44 0.45 0.54 0.67 1.02
0.62 0.46 0.53 0.44 0.47 0.47 0.41 0.37 0.35 0.32 0.33 0.36 0.40 0.45 0.45 0.44 0.47 0.49 0.55 0.72 1.00 0.84 0.60 0.54 0.60 0.65 0.70 0.70 0.69 0.64 0.62 0.68 0.54 0.37 0.29 0.23 0.20 0.22 0.26 0.30 0.33 0.46 0.58
0.66 0.57 0.43 0.39 0.33 0.37 0.45 0.28 0.21 0.19 0.22 0.24 0.29 0.36 0.39 0.39 0.42 0.44 0.51 0.59 0.75 1.01 0.93 0.60 0.60 0.67 0.74 0.69 0.63 0.45 0.34 0.37 0.30 0.27 0.24 0.21 0.17 0.19 0.20 0.21 0.24 0.32 0.46
0.43 0.44 0.39 0.33 0.23 0.17 0.18 0.27 0.14 0.08 0.09 0.13 0.17 0.22 0.23 0.24 0.29 0.35 0.43 0.49 0.57 0.76 0.86 0.59 0.52 0.44 0.33 0.20 0.14 0.16 0.15 0.12 0.12 0.19 0.18 0.18 0.17 0.17 0.17 0.18 0.20 0.26 0.34
0.35 0.30 0.27 0.31 0.23 0.15 0.11 0.12 0.11 0.06 0.05 0.04 0.05 0.08 0.10 0.13 0.19 0.27 0.32 0.36 0.41 0.44 0.50 0.37 0.17 0.16 0.14 0.11 0.08 0.10 0.10 0.12 0.12 0.15 0.14 0.13 0.16 0.19 0.21 0.20 0.19 0.21 0.26
0.39 0.30 0.25 0.22 0.16 0.12 0.09 0.06 0.08 0.09 0.08 0.09 0.10 0.12 0.15 0.21 0.27 0.32 0.39 0.41 0.39 0.37 0.40 0.43 0.22 0.13 0.13 0.12 0.12 0.12 0.13 0.14 0.15 0.23 0.21 0.21 0.24 0.23 0.24 0.27 0.32 0.40 0.44
0.28 0.33 0.34 0.26 0.19 0.14 0.13 0.12 0.10 0.14 0.16 0.15 0.17 0.20 0.23 0.26 0.26 0.25 0.24 0.24 0.27 0.28 0.29 0.32 0.33 0.27 0.18 0.16 0.19 0.16 0.13 0.12 0.14 0.18 0.28 0.33 0.40 0.44 0.46 0.48 0.49 0.44 0.40
0.14 0.18 0.19 0.20 0.28 0.31 0.25 0.24 0.26 0.28 0.34 0.40 0.37 0.35 0.31 0.28 0.22 0.14 0.16 0.17 0.24 0.26 0.37 0.54 0.54 0.47 0.44 0.37 0.30 0.29 0.40 0.41 0.42 0.39 0.38 0.39 0.45 0.49 0.46 0.46 0.47 0.45 0.46
0.19 0.16 0.17 0.21 0.21 0.21 0.34 0.29 0.24 0.24 0.27 0.25 0.22 0.21 0.22 0.24 0.19 0.16 0.17 0.18 0.19 0.33 0.50 0.65 0.65 0.55 0.40 0.41 0.43 0.53 0.70 0.80 0.76 0.34 0.29 0.39 0.41 0.44 0.44 0.46 0.50 0.46 0.44
0.71 0.68 0.69 0.52 0.54 0.55 0.58 0.47 0.44 0.42 0.40 0.36 0.33 0.29 0.20 0.14 0.12 0.09 0.06 0.10 0.19 0.35 0.41 0.29 0.24 0.25 0.34 0.31 0.52 0.66 0.63 0.66 0.56 0.35 0.44 0.57 0.47 0.52 0.51 0.52 0.57 0.51 0.51
0.51 0.61 0.99 1.13 1.14 0.98 0.81 0.58 0.40 0.29 0.20 0.16 0.12 0.08 0.04 0.04 0.04 0.05 0.09 0.29 0.26 0.13 0.04 0.06 0.08 0.11 0.24 0.40 0.59 0.85 0.83 0.89 0.68 0.49 0.46 0.59 0.34 0.38 0.39 0.43 0.56 0.41 0.35
0.69 0.63 0.56 0.48 0.42 0.31 0.23 0.16 0.12 0.11 0.09 0.06 0.02 0.01 0.04 0.03 0.04 0.12 0.27 0.32 0.07 0.01 0.02 0.06 0.16 0.18 0.21 0.22 0.28 0.63 0.85 0.83 0.77 0.47 0.38 0.46 0.37 0.36 0.34 0.33 0.43 0.48 0.44
0.55 0.45 0.35 0.24 0.20 0.14 0.10 0.08 0.03 0.02 0.01 0.00 0.02 0.02 0.04 0.03 0.09 0.33 0.19 0.05 0.08 0.04 0.14 0.11 0.03 0.02 0.04 0.11 0.24 0.33 0.72 1.40 1.00 0.83 0.39 0.77 0.59 0.49 0.81 0.37 0.43 0.53 0.45

GFSMA_prec_precacc_126.txt.gz
Total_Precipitation_Accumulation
0.01 0.01 0.00 0.00 0.00 0.00 0.00 0.00 0.00 0.00 0.00 0.00 0.00 0.00 0.00 0.00 0.00 0.00 0.00 0.00 0.00 0.00 0.00 0.01 0.01 0.01 0.04 0.07 0.11 0.13 0.14 0.12 0.10 0.09 0.09 0.09 0.09 0.11 0.12 0.14 0.15 0.16 0.15
0.00 0.00 0.00 0.00 0.00 0.00 0.00 0.00 0.00 0.00 0.00 0.00 0.00 0.00 0.00 0.00 0.00 0.00 0.00 0.00 0.00 0.00 0.00 0.01 0.03 0.01 0.02 0.04 0.07 0.12 0.11 0.09 0.08 0.08 0.08 0.09 0.09 0.10 0.12 0.13 0.15 0.16 0.18
0.00 0.00 0.00 0.00 0.00 0.00 0.00 0.00 0.00 0.00 0.00 0.00 0.00 0.00 0.00 0.00 0.00 0.00 0.00 0.00 0.00 0.00 0.00 0.03 0.21 0.19 0.08 0.04 0.07 0.07 0.10 0.11 0.11 0.12 0.13 0.13 0.13 0.13 0.13 0.15 0.16 0.16 0.17
0.00 0.00 0.00 0.00 0.00 0.00 0.00 0.00 0.00 0.00 0.00 0.00 0.00 0.00 0.00 0.00 0.00 0.00 0.00 0.00 0.00 0.00 0.00 0.00 0.09 0.26 0.29 0.23 0.35 0.54 0.37 0.20 0.14 0.13 0.13 0.14 0.16 0.17 0.19 0.19 0.19 0.20 0.21
0.00 0.00 0.00 0.00 0.00 0.00 0.00 0.00 0.00 0.00 0.00 0.00 0.00 0.00 0.00 0.00 0.00 0.00 0.00 0.00 0.00 0.00 0.00 0.00 0.00 0.03 0.13 0.25 0.38 0.54 0.95 0.70 0.36 0.29 0.23 0.17 0.15 0.16 0.20 0.24 0.26 0.27 0.28
0.04 0.00 0.00 0.00 0.00 0.00 0.00 0.00 0.00 0.00 0.00 0.00 0.00 0.00 0.00 0.00 0.00 0.00 0.00 0.00 0.00 0.00 0.00 0.00 0.00 0.00 0.00 0.02 0.12 0.27 0.48 0.79 0.55 0.37 0.29 0.24 0.22 0.24 0.26 0.28 0.26 0.27 0.28
0.13 0.06 0.01 0.00 0.00 0.00 0.00 0.00 0.00 0.00 0.00 0.00 0.00 0.00 0.00 0.00 0.00 0.00 0.00 0.00 0.00 0.00 0.00 0.01 0.03 0.06 0.03 0.05 0.04 0.05 0.14 0.28 0.42 0.48 0.57 0.64 0.53 0.39 0.34 0.33 0.34 0.35 0.38
0.57 0.25 0.10 0.11 0.04 0.01 0.01 0.00 0.01 0.01 0.01 0.01 0.02 0.04 0.03 0.01 0.00 0.00 0.01 0.00 0.00 0.01 0.03 0.07 0.12 0.12 0.07 0.04 0.04 0.04 0.05 0.09 0.28 0.41 0.43 0.51 0.70 0.61 0.53 0.46 0.47 0.47 0.49
1.22 0.84 0.64 0.54 0.39 0.26 0.35 0.28 0.32 0.30 0.23 0.22 0.18 0.23 0.23 0.19 0.14 0.05 0.05 0.05 0.08 0.07 0.07 0.05 0.05 0.05 0.04 0.05 0.09 0.11 0.14 0.18 0.32 0.51 0.46 0.44 0.51 0.59 0.65 0.67 0.74 0.74 0.79
1.18 1.43 1.44 1.22 1.05 0.99 0.90 0.98 0.83 0.91 0.98 0.85 0.72 0.57 0.57 0.45 0.41 0.23 0.07 0.08 0.07 0.06 0.06 0.03 0.03 0.05 0.09 0.16 0.26 0.35 0.40 0.40 0.41 0.51 0.76 0.81 0.80 0.84 0.87 0.97 1.11 1.26 1.22
1.01 1.17 1.27 1.44 1.52 1.62 1.57 1.62 1.60 1.48 1.30 1.07 0.85 0.77 0.64 0.57 0.57 0.76 0.59 0.31 0.25 0.13 0.06 0.07 0.09 0.12 0.18 0.28 0.37 0.42 0.45 0.46 0.51 0.60 0.84 1.00 1.04 1.02 1.17 1.47 1.62 1.70 1.72
1.38 1.46 1.56 1.46 1.50 1.32 1.16 1.23 1.34 1.10 0.89 0.72 0.63 0.71 0.83 0.82 0.62 0.62 0.53 0.26 0.17 0.09 0.06 0.06 0.09 0.11 0.12 0.17 0.26 0.36 0.45 0.54 0.70 0.80 0.95 1.23 1.27 1.36 1.64 1.96 2.13 2.32 2.30
0.79 0.82 0.82 0.98 1.05 0.95 0.72 0.61 0.58 0.51 0.46 0.49 0.56 0.54 0.53 0.52 0.50 0.50 0.54 0.42 0.32 0.22 0.21 0.18 0.19 0.20 0.19 0.23 0.36 0.56 0.64 0.73 0.78 0.87 1.12 1.34 1.18 1.12 1.12 1.11 1.25 1.77 2.10
0.49 0.53 0.45 0.62 0.70 0.65 0.60 0.42 0.36 0.38 0.40 0.46 0.51 0.52 0.51 0.44 0.47 0.48 0.47 0.52 0.44 0.29 0.25 0.22 0.22 0.31 0.46 0.62 0.77 0.82 0.73 0.79 0.79 0.84 0.85 0.81 0.62 0.53 0.44 0.45 0.54 0.67 1.02
0.62 0.46 0.53 0.44 0.47 0.47 0.42 0.37 0.35 0.33 0.33 0.38 0.41 0.45 0.45 0.44 0.47 0.49 0.55 0.72 1.00 0.84 0.60 0.54 0.60 0.65 0.70 0.70 0.69 0.64 0.62 0.68 0.54 0.37 0.29 0.23 0.20 0.22 0.27 0.30 0.33 0.46 0.58
0.66 0.57 0.43 0.40 0.34 0.38 0.46 0.30 0.21 0.20 0.22 0.25 0.29 0.36 0.39 0.39 0.42 0.44 0.51 0.59 0.75 1.01 0.93 0.60 0.60 0.67 0.74 0.69 0.63 0.45 0.34 0.37 0.30 0.27 0.24 0.21 0.18 0.19 0.20 0.21 0.24 0.32 0.46
0.47 0.47 0.44 0.36 0.25 0.18 0.19 0.29 0.15 0.10 0.12 0.14 0.17 0.22 0.23 0.24 0.29 0.35 0.43 0.49 0.57 0.76 0.86 0.59 0.52 0.44 0.33 0.20 0.14 0.16 0.15 0.12 0.12 0.20 0.19 0.18 0.17 0.18 0.17 0.18 0.20 0.26 0.34
0.45 0.37 0.33 0.39 0.32 0.23 0.17 0.14 0.12 0.07 0.05 0.04 0.05 0.09 0.11 0.14 0.19 0.27 0.32 0.36 0.41 0.44 0.50 0.37 0.17 0.16 0.14 0.11 0.08 0.10 0.10 0.12 0.12 0.16 0.14 0.14 0.16 0.19 0.21 0.20 0.19 0.21 0.26
0.58 0.42 0.35 0.29 0.22 0.18 0.16 0.12 0.11 0.11 0.08 0.09 0.11 0.13 0.17 0.22 0.28 0.32 0.39 0.41 0.39 0.37 0.40 0.43 0.22 0.13 0.13 0.12 0.12 0.12 0.13 0.14 0.15 0.23 0.21 0.21 0.24 0.24 0.24 0.27 0.32 0.40 0.44
0.68 0.59 0.51 0.38 0.29 0.23 0.22 0.19 0.14 0.15 0.17 0.17 0.19 0.22 0.26 0.29 0.28 0.26 0.24 0.24 0.27 0.28 0.29 0.32 0.33 0.27 0.18 0.16 0.19 0.16 0.13 0.12 0.14 0.18 0.28 0.33 0.40 0.45 0.46 0.48 0.49 0.44 0.40
0.45 0.50 0.62 0.65 0.54 0.52 0.42 0.35 0.32 0.33 0.39 0.48 0.45 0.38 0.33 0.31 0.24 0.14 0.16 0.17 0.24 0.26 0.37 0.54 0.54 0.47 0.44 0.37 0.30 0.29 0.40 0.41 0.42 0.39 0.38 0.39 0.45 0.49 0.46 0.47 0.48 0.46 0.47
0.28 0.30 0.42 0.58 0.65 0.54 0.76 0.72 0.54 0.41 0.39 0.40 0.41 0.33 0.27 0.26 0.20 0.16 0.17 0.18 0.19 0.33 0.50 0.65 0.65 0.55 0.40 0.41 0.43 0.53 0.70 0.80 0.76 0.34 0.29 0.39 0.41 0.45 0.44 0.47 0.53 0.47 0.45
0.77 0.77 0.84 0.69 0.69 0.69 0.77 0.73 0.80 0.73 0.62 0.50 0.42 0.36 0.26 0.15 0.12 0.09 0.06 0.10 0.19 0.35 0.41 0.29 0.24 0.25 0.34 0.31 0.52 0.66 0.63 0.66 0.56 0.35 0.44 0.57 0.47 0.53 0.52 0.53 0.59 0.52 0.51
0.56 0.68 1.06 1.20 1.27 1.27 1.08 0.82 0.71 0.63 0.50 0.36 0.27 0.17 0.06 0.04 0.04 0.05 0.09 0.29 0.26 0.13 0.04 0.06 0.08 0.11 0.24 0.40 0.59 0.85 0.83 0.89 0.68 0.49 0.46 0.59 0.34 0.38 0.39 0.43 0.57 0.42 0.35
0.70 0.63 0.57 0.51 0.45 0.37 0.33 0.28 0.22 0.20 0.20 0.13 0.05 0.01 0.04 0.03 0.04 0.12 0.27 0.32 0.07 0.01 0.02 0.06 0.16 0.18 0.21 0.22 0.28 0.63 0.85 0.83 0.77 0.47 0.38 0.46 0.37 0.36 0.34 0.33 0.43 0.48 0.45
0.56 0.45 0.36 0.25 0.25 0.30 0.31 0.26 0.21 0.14 0.07 0.03 0.05 0.04 0.05 0.03 0.09 0.33 0.19 0.05 0.08 0.04 0.14 0.11 0.03 0.02 0.04 0.11 0.24 0.33 0.72 1.40 1.00 0.83 0.39 0.77 0.59 0.49 0.81 0.37 0.43 0.53 0.45

GFSMA_prec_precacc_132.txt.gz
Total_Precipitation_Accumulation
0.01 0.01 0.00 0.00 0.00 0.00 0.00 0.00 0.00 0.00 0.00 0.00 0.00 0.00 0.00 0.00 0.00 0.00 0.00 0.00 0.00 0.00 0.00 0.01 0.01 0.01 0.04 0.07 0.11 0.13 0.14 0.12 0.10 0.09 0.09 0.09 0.09 0.11 0.12 0.14 0.15 0.16 0.15
0.00 0.00 0.00 0.00 0.00 0.00 0.00 0.00 0.00 0.00 0.00 0.00 0.00 0.00 0.00 0.00 0.00 0.00 0.00 0.00 0.00 0.00 0.00 0.01 0.03 0.01 0.02 0.04 0.07 0.12 0.11 0.09 0.08 0.08 0.08 0.09 0.09 0.10 0.12 0.13 0.15 0.16 0.18
0.00 0.00 0.00 0.00 0.00 0.00 0.00 0.00 0.00 0.00 0.00 0.00 0.00 0.00 0.00 0.00 0.00 0.00 0.00 0.00 0.00 0.00 0.00 0.03 0.21 0.19 0.09 0.06 0.10 0.09 0.11 0.11 0.11 0.12 0.13 0.13 0.13 0.13 0.13 0.15 0.16 0.16 0.17
0.00 0.00 0.00 0.00 0.00 0.00 0.00 0.00 0.00 0.00 0.00 0.00 0.00 0.00 0.00 0.00 0.00 0.00 0.00 0.00 0.00 0.00 0.00 0.00 0.10 0.29 0.41 0.40 0.57 0.83 0.66 0.39 0.26 0.20 0.17 0.15 0.17 0.17 0.19 0.19 0.19 0.20 0.21
0.01 0.00 0.00 0.00 0.00 0.00 0.00 0.00 0.00 0.00 0.00 0.00 0.00 0.00 0.00 0.00 0.00 0.00 0.00 0.00 0.00 0.00 0.00 0.00 0.00 0.05 0.16 0.28 0.40 0.66 1.09 0.77 0.45 0.40 0.31 0.24 0.20 0.20 0.23 0.25 0.26 0.27 0.28
0.09 0.01 0.00 0.00 0.00 0.00 0.00 0.00 0.00 0.00 0.00 0.00 0.00 0.00 0.00 0.00 0.00 0.00 0.00 0.00 0.00 0.00 0.00 0.00 0.00 0.00 0.00 0.02 0.12 0.28 0.53 0.84 0.56 0.37 0.30 0.25 0.23 0.25 0.29 0.29 0.29 0.29 0.29
0.25 0.14 0.06 0.01 0.00 0.00 0.00 0.00 0.00 0.00 0.00 0.00 0.00 0.00 0.00 0.00 0.00 0.00 0.00 0.00 0.00 0.00 0.00 0.01 0.03 0.06 0.03 0.05 0.04 0.05 0.15 0.29 0.42 0.51 0.58 0.65 0.53 0.39 0.35 0.33 0.40 0.41 0.41
0.69 0.36 0.20 0.18 0.06 0.01 0.01 0.00 0.01 0.01 0.01 0.01 0.02 0.04 0.03 0.01 0.00 0.00 0.01 0.00 0.00 0.01 0.03 0.07 0.12 0.12 0.07 0.04 0.04 0.04 0.05 0.09 0.28 0.41 0.43 0.51 0.71 0.61 0.53 0.46 0.48 0.48 0.51
1.34 0.98 0.75 0.63 0.44 0.26 0.35 0.28 0.32 0.30 0.23 0.22 0.18 0.23 0.23 0.19 0.14 0.05 0.05 0.05 0.08 0.07 0.07 0.05 0.05 0.05 0.04 0.05 0.09 0.11 0.14 0.18 0.32 0.51 0.47 0.45 0.53 0.61 0.67 0.69 0.75 0.76 0.81
1.47 1.63 1.58 1.31 1.14 1.03 0.90 0.98 0.83 0.91 0.98 0.85 0.72 0.57 0.57 0.45 0.41 0.23 0.07 0.08 0.07 0.06 0.06 0.03 0.03 0.05 0.09 0.16 0.26 0.35 0.40 0.40 0.41 0.51 0.77 0.82 0.82 0.89 0.91 0.98 1.11 1.26 1.22
1.17 1.39 1.56 1.66 1.63 1.68 1.59 1.63 1.60 1.48 1.30 1.07 0.85 0.77 0.64 0.57 0.57 0.76 0.59 0.31 0.25 0.13 0.06 0.07 0.09 0.12 0.18 0.28 0.37 0.42 0.45 0.46 0.51 0.60 0.84 1.01 1.05 1.06 1.20 1.49 1.62 1.70 1.72
1.48 1.57 1.75 1.73 1.76 1.51 1.24 1.24 1.34 1.10 0.89 0.72 0.63 0.71 0.83 0.82 0.62 0.62 0.53 0.26 0.17 0.09 0.06 0.06 0.09 0.11 0.12 0.17 0.26 0.36 0.45 0.54 0.70 0.80 0.96 1.24 1.28 1.38 1.67 1.98 2.14 2.32 2.30
0.90 0.93 0.93 1.12 1.16 1.04 0.80 0.63 0.58 0.51 0.46 0.49 0.56 0.54 0.53 0.53 0.50 0.50 0.54 0.42 0.32 0.22 0.21 0.18 0.19 0.20 0.19 0.23 0.36 0.56 0.64 0.73 0.78 0.88 1.13 1.35 1.19 1.14 1.14 1.12 1.25 1.77 2.10
0.54 0.61 0.55 0.69 0.73 0.66 0.60 0.43 0.36 0.38 0.40 0.46 0.51 0.52 0.54 0.47 0.49 0.49 0.48 0.52 0.44 0.29 0.25 0.22 0.22 0.31 0.46 0.62 0.77 0.82 0.73 0.80 0.79 0.85 0.86 0.82 0.63 0.54 0.45 0.46 0.55 0.67 1.02
0.66 0.53 0.68 0.63 0.55 0.49 0.43 0.38 0.35 0.33 0.34 0.39 0.42 0.49 0.50 0.47 0.48 0.50 0.55 0.72 1.00 0.84 0.60 0.54 0.60 0.65 0.70 0.70 0.69 0.64 0.62 0.68 0.54 0.38 0.30 0.23 0.20 0.23 0.27 0.30 0.33 0.46 0.58
0.82 0.68 0.55 0.60 0.61 0.50 0.50 0.32 0.24 0.23 0.25 0.28 0.34 0.43 0.46 0.44 0.46 0.48 0.54 0.59 0.75 1.01 0.93 0.60 0.60 0.67 0.74 0.69 0.63 0.45 0.34 0.37 0.30 0.27 0.25 0.22 0.18 0.20 0.20 0.22 0.24 0.32 0.46
0.68 0.66 0.61 0.51 0.44 0.42 0.35 0.38 0.19 0.13 0.16 0.20 0.22 0.26 0.27 0.30 0.34 0.39 0.45 0.49 0.57 0.76 0.86 0.59 0.52 0.44 0.33 0.20 0.14 0.16 0.15 0.12 0.12 0.20 0.19 0.19 0.18 0.18 0.17 0.18 0.20 0.26 0.34
0.61 0.60 0.55 0.62 0.55 0.46 0.37 0.28 0.21 0.15 0.13 0.11 0.09 0.11 0.16 0.19 0.23 0.30 0.33 0.36 0.41 0.44 0.50 0.37 0.17 0.16 0.14 0.11 0.08 0.10 0.10 0.12 0.12 0.16 0.14 0.14 0.16 0.19 0.21 0.20 0.19 0.21 0.26
0.72 0.62 0.65 0.59 0.49 0.48 0.47 0.40 0.32 0.32 0.30 0.27 0.23 0.21 0.26 0.31 0.34 0.37 0.45 0.47 0.43 0.38 0.40 0.43 0.22 0.13 0.13 0.12 0.12 0.12 0.13 0.14 0.15 0.23 0.21 0.21 0.24 0.24 0.25 0.27 0.33 0.40 0.44
1.03 0.76 0.73 0.68 0.61 0.48 0.45 0.43 0.38 0.36 0.35 0.30 0.28 0.32 0.37 0.38 0.36 0.35 0.32 0.30 0.30 0.30 0.29 0.32 0.33 0.27 0.18 0.16 0.19 0.16 0.13 0.12 0.14 0.18 0.28 0.33 0.40 0.45 0.47 0.49 0.50 0.44 0.40
0.88 0.74 0.81 0.89 0.83 0.79 0.66 0.59 0.53 0.49 0.51 0.56 0.54 0.47 0.40 0.36 0.30 0.20 0.21 0.21 0.25 0.27 0.38 0.55 0.55 0.47 0.44 0.37 0.30 0.29 0.40 0.41 0.42 0.39 0.38 0.39 0.45 0.49 0.46 0.47 0.48 0.46 0.47
0.80 0.82 0.72 0.81 0.91 0.79 0.98 0.94 0.75 0.59 0.53 0.50 0.50 0.43 0.36 0.36 0.31 0.30 0.33 0.32 0.28 0.39 0.54 0.68 0.68 0.56 0.40 0.41 0.43 0.53 0.70 0.80 0.76 0.34 0.29 0.39 0.41 0.45 0.44 0.47 0.55 0.48 0.45
1.03 1.07 1.27 0.95 1.09 1.27 1.29 1.19 1.33 1.25 1.05 0.84 0.72 0.67 0.62 0.57 0.56 0.49 0.43 0.44 0.51 0.64 0.60 0.39 0.31 0.27 0.35 0.31 0.52 0.66 0.63 0.66 0.56 0.35 0.44 0.57 0.47 0.53 0.52 0.53 0.60 0.52 0.52
0.72 0.83 1.28 1.43 1.51 1.57 1.44 1.20 1.16 1.14 1.18 1.14 1.05 0.94 0.79 0.68 0.67 0.70 0.69 0.84 0.76 0.56 0.34 0.25 0.18 0.15 0.26 0.41 0.59 0.85 0.83 0.89 0.68 0.49 0.46 0.59 0.34 0.38 0.39 0.43 0.57 0.42 0.36
0.71 0.67 0.63 0.61 0.58 0.51 0.52 0.46 0.47 0.47 0.54 0.58 0.60 0.63 0.73 0.78 0.83 0.84 0.88 0.86 0.48 0.27 0.21 0.20 0.24 0.24 0.24 0.24 0.30 0.63 0.85 0.83 0.77 0.47 0.38 0.46 0.37 0.36 0.34 0.33 0.43 0.48 0.45
0.56 0.45 0.36 0.26 0.28 0.34 0.38 0.35 0.33 0.32 0.33 0.36 0.39 0.35 0.39 0.36 0.44 0.68 0.50 0.32 0.28 0.20 0.30 0.24 0.13 0.08 0.08 0.15 0.27 0.33 0.72 1.40 1.00 0.83 0.39 0.77 0.59 0.49 0.81 0.37 0.43 0.53 0.45

GFSMA_prec_precacc_135.txt.gz
Total_Precipitation_Accumulation
0.01 0.01 0.00 0.00 0.00 0.00 0.00 0.00 0.00 0.00 0.00 0.00 0.00 0.00 0.00 0.00 0.00 0.00 0.00 0.00 0.00 0.00 0.00 0.01 0.01 0.01 0.04 0.07 0.11 0.13 0.14 0.12 0.10 0.09 0.09 0.09 0.09 0.11 0.12 0.14 0.15 0.16 0.15
0.00 0.00 0.00 0.00 0.00 0.00 0.00 0.00 0.00 0.00 0.00 0.00 0.00 0.00 0.00 0.00 0.00 0.00 0.00 0.00 0.00 0.00 0.00 0.01 0.03 0.01 0.02 0.04 0.07 0.12 0.11 0.09 0.08 0.08 0.08 0.09 0.09 0.10 0.12 0.13 0.15 0.16 0.18
0.00 0.00 0.00 0.00 0.00 0.00 0.00 0.00 0.00 0.00 0.00 0.00 0.00 0.00 0.00 0.00 0.00 0.00 0.00 0.00 0.00 0.00 0.00 0.03 0.21 0.19 0.10 0.10 0.17 0.16 0.14 0.12 0.11 0.12 0.13 0.13 0.13 0.13 0.13 0.15 0.16 0.16 0.17
0.00 0.00 0.00 0.00 0.00 0.00 0.00 0.00 0.00 0.00 0.00 0.00 0.00 0.00 0.00 0.00 0.00 0.00 0.00 0.00 0.00 0.00 0.00 0.00 0.10 0.30 0.43 0.42 0.61 0.89 0.70 0.44 0.30 0.22 0.18 0.15 0.17 0.17 0.19 0.19 0.19 0.20 0.21
0.02 0.00 0.00 0.00 0.00 0.00 0.00 0.00 0.00 0.00 0.00 0.00 0.00 0.00 0.00 0.00 0.00 0.00 0.00 0.00 0.00 0.00 0.00 0.00 0.00 0.05 0.16 0.28 0.40 0.66 1.09 0.77 0.45 0.40 0.31 0.24 0.20 0.20 0.23 0.25 0.26 0.27 0.28
0.10 0.02 0.00 0.01 0.00 0.00 0.00 0.00 0.00 0.00 0.00 0.00 0.00 0.00 0.00 0.00 0.00 0.00 0.00 0.00 0.00 0.00 0.00 0.00 0.00 0.00 0.00 0.02 0.12 0.28 0.53 0.85 0.56 0.37 0.30 0.25 0.23 0.25 0.29 0.29 0.29 0.29 0.29
0.26 0.15 0.08 0.04 0.01 0.00 0.00 0.00 0.00 0.00 0.00 0.00 0.00 0.00 0.00 0.00 0.00 0.00 0.00 0.00 0.00 0.00 0.00 0.01 0.03 0.06 0.03 0.05 0.04 0.05 0.15 0.29 0.42 0.51 0.58 0.65 0.53 0.39 0.35 0.33 0.40 0.41 0.41
0.71 0.38 0.22 0.22 0.09 0.02 0.01 0.00 0.01 0.01 0.01 0.01 0.02 0.04 0.03 0.01 0.00 0.00 0.01 0.00 0.00 0.01 0.03 0.07 0.12 0.12 0.07 0.04 0.04 0.04 0.05 0.09 0.28 0.41 0.43 0.51 0.71 0.61 0.53 0.46 0.48 0.48 0.51
1.43 1.03 0.77 0.65 0.47 0.29 0.36 0.28 0.32 0.30 0.23 0.22 0.18 0.23 0.23 0.19 0.14 0.05 0.05 0.05 0.08 0.07 0.07 0.05 0.05 0.05 0.04 0.05 0.09 0.11 0.14 0.18 0.32 0.51 0.47 0.45 0.53 0.62 0.67 0.69 0.75 0.76 0.81
1.48 1.66 1.63 1.34 1.15 1.06 0.93 1.00 0.83 0.91 0.98 0.85 0.72 0.57 0.57 0.45 0.41 0.23 0.07 0.08 0.07 0.06 0.06 0.03 0.03 0.05 0.09 0.16 0.26 0.35 0.40 0.40 0.41 0.51 0.77 0.82 0.82 0.90 0.92 0.99 1.12 1.26 1.22
1.18 1.40 1.57 1.68 1.65 1.70 1.63 1.66 1.61 1.48 1.30 1.07 0.85 0.77 0.64 0.57 0.57 0.76 0.59 0.31 0.25 0.13 0.06 0.07 0.09 0.12 0.18 0.28 0.37 0.42 0.45 0.46 0.51 0.60 0.85 1.01 1.06 1.06 1.21 1.50 1.64 1.70 1.72
1.48 1.58 1.76 1.73 1.77 1.53 1.28 1.29 1.39 1.12 0.89 0.72 0.63 0.71 0.83 0.82 0.62 0.62 0.53 0.26 0.17 0.09 0.06 0.06 0.09 0.11 0.12 0.17 0.26 0.36 0.45 0.54 0.70 0.80 0.96 1.24 1.28 1.38 1.68 2.00 2.15 2.32 2.30
0.91 0.95 0.94 1.12 1.16 1.05 0.83 0.73 0.65 0.54 0.47 0.49 0.56 0.54 0.53 0.53 0.50 0.50 0.54 0.42 0.32 0.22 0.21 0.18 0.19 0.20 0.19 0.23 0.36 0.56 0.64 0.73 0.78 0.88 1.13 1.35 1.19 1.15 1.15 1.14 1.26 1.77 2.10
0.54 0.62 0.56 0.69 0.73 0.66 0.61 0.45 0.39 0.41 0.41 0.47 0.51 0.52 0.54 0.47 0.49 0.49 0.48 0.52 0.44 0.29 0.25 0.22 0.22 0.31 0.46 0.62 0.77 0.82 0.73 0.80 0.79 0.85 0.86 0.83 0.63 0.54 0.45 0.46 0.55 0.67 1.02
0.66 0.53 0.69 0.64 0.55 0.49 0.44 0.39 0.36 0.34 0.35 0.40 0.43 0.50 0.50 0.47 0.48 0.50 0.55 0.72 1.00 0.84 0.60 0.54 0.60 0.65 0.70 0.70 0.69 0.64 0.62 0.68 0.54 0.38 0.30 0.24 0.21 0.23 0.27 0.30 0.33 0.46 0.58
0.82 0.68 0.56 0.61 0.63 0.52 0.50 0.32 0.24 0.23 0.26 0.29 0.35 0.45 0.48 0.45 0.47 0.50 0.57 0.62 0.78 1.05 0.94 0.60 0.60 0.67 0.74 0.69 0.63 0.45 0.34 0.37 0.30 0.27 0.25 0.23 0.19 0.20 0.20 0.22 0.24 0.32 0.46
0.69 0.66 0.61 0.51 0.45 0.44 0.36 0.41 0.20 0.14 0.16 0.21 0.23 0.28 0.29 0.32 0.37 0.43 0.49 0.55 0.63 0.82 0.90 0.61 0.53 0.44 0.33 0.20 0.14 0.16 0.15 0.12 0.12 0.20 0.19 0.19 0.18 0.18 0.17 0.18 0.20 0.26 0.34
0.62 0.61 0.56 0.62 0.55 0.47 0.40 0.37 0.29 0.18 0.15 0.12 0.13 0.15 0.18 0.21 0.25 0.33 0.38 0.42 0.49 0.52 0.54 0.39 0.18 0.16 0.14 0.11 0.08 0.10 0.10 0.12 0.12 0.16 0.14 0.14 0.16 0.19 0.21 0.20 0.19 0.21 0.26
0.75 0.64 0.66 0.61 0.50 0.54 0.51 0.46 0.41 0.41 0.38 0.32 0.29 0.27 0.32 0.39 0.40 0.47 0.56 0.59 0.57 0.51 0.47 0.48 0.25 0.15 0.14 0.12 0.12 0.12 0.13 0.14 0.15 0.23 0.21 0.21 0.24 0.24 0.25 0.27 0.33 0.40 0.44
1.15 0.82 0.78 0.82 0.89 0.76 0.70 0.69 0.61 0.53 0.50 0.45 0.42 0.46 0.51 0.51 0.46 0.45 0.45 0.40 0.40 0.39 0.37 0.38 0.37 0.29 0.19 0.16 0.20 0.16 0.13 0.12 0.14 0.18 0.28 0.33 0.40 0.45 0.47 0.49 0.50 0.44 0.40
1.19 1.06 0.95 1.00 1.01 1.16 1.19 1.16 1.05 0.95 0.89 0.81 0.73 0.60 0.49 0.45 0.38 0.29 0.29 0.26 0.30 0.32 0.44 0.61 0.61 0.52 0.49 0.39 0.31 0.31 0.42 0.42 0.42 0.39 0.38 0.39 0.45 0.49 0.46 0.47 0.48 0.46 0.47
1.09 1.29 1.07 0.99 1.01 0.92 1.19 1.29 1.13 0.91 0.80 0.77 0.65 0.49 0.41 0.44 0.40 0.40 0.42 0.39 0.33 0.46 0.61 0.74 0.72 0.59 0.43 0.43 0.46 0.57 0.72 0.81 0.76 0.34 0.29 0.39 0.41 0.45 0.44 0.47 0.55 0.48 0.45
1.25 1.24 1.46 1.13 1.20 1.36 1.44 1.38 1.56 1.49 1.28 1.05 0.90 0.81 0.72 0.64 0.62 0.55 0.50 0.53 0.61 0.78 0.78 0.57 0.47 0.41 0.45 0.40 0.62 0.73 0.66 0.66 0.56 0.35 0.44 0.57 0.47 0.53 0.52 0.53 0.60 0.52 0.52
0.84 0.89 1.35 1.59 1.59 1.69 1.58 1.35 1.31 1.26 1.29 1.25 1.16 1.05 0.90 0.78 0.77 0.83 0.81 0.98 0.93 0.77 0.62 0.57 0.53 0.49 0.57 0.66 0.75 0.90 0.86 0.90 0.68 0.49 0.46 0.59 0.34 0.38 0.39 0.43 0.57 0.42 0.36
0.74 0.67 0.63 0.62 0.61 0.56 0.59 0.51 0.52 0.51 0.58 0.64 0.70 0.75 0.87 0.90 0.96 1.00 1.05 1.11 0.83 0.73 0.74 0.73 0.71 0.64 0.58 0.51 0.48 0.76 0.95 0.90 0.80 0.48 0.38 0.46 0.37 0.36 0.34 0.33 0.43 0.48 0.45
0.56 0.45 0.36 0.26 0.28 0.34 0.38 0.35 0.33 0.32 0.34 0.38 0.42 0.40 0.46 0.46 0.57 0.83 0.67 0.56 0.62 0.57 0.64 0.58 0.48 0.44 0.42 0.45 0.50 0.52 0.87 1.49 1.05 0.85 0.39 0.77 0.59 0.49 0.81 0.37 0.43 0.53 0.45

GFSMA_prec_precacc_138.txt.gz
Total_Precipitation_Accumulation
0.01 0.01 0.00 0.00 0.00 0.00 0.00 0.00 0.00 0.00 0.00 0.00 0.00 0.00 0.00 0.00 0.00 0.00 0.00 0.00 0.00 0.00 0.00 0.01 0.01 0.01 0.04 0.07 0.11 0.13 0.14 0.12 0.10 0.09 0.09 0.09 0.09 0.11 0.12 0.14 0.15 0.16 0.15
0.00 0.00 0.00 0.00 0.00 0.00 0.00 0.00 0.00 0.00 0.00 0.00 0.00 0.00 0.00 0.00 0.00 0.00 0.00 0.00 0.00 0.00 0.00 0.01 0.03 0.01 0.02 0.04 0.07 0.12 0.11 0.09 0.08 0.08 0.08 0.09 0.09 0.10 0.12 0.13 0.15 0.16 0.18
0.00 0.00 0.00 0.00 0.00 0.00 0.00 0.00 0.00 0.00 0.00 0.00 0.00 0.00 0.00 0.00 0.00 0.00 0.00 0.00 0.00 0.00 0.00 0.03 0.22 0.20 0.11 0.13 0.25 0.21 0.16 0.12 0.11 0.12 0.13 0.13 0.13 0.13 0.13 0.15 0.16 0.16 0.17
0.00 0.00 0.00 0.00 0.00 0.00 0.00 0.00 0.00 0.00 0.00 0.00 0.00 0.00 0.00 0.00 0.00 0.00 0.00 0.00 0.00 0.00 0.00 0.00 0.10 0.31 0.44 0.43 0.62 0.90 0.70 0.44 0.30 0.22 0.18 0.15 0.17 0.17 0.19 0.19 0.19 0.20 0.21
0.03 0.00 0.00 0.00 0.00 0.00 0.00 0.00 0.00 0.00 0.00 0.00 0.00 0.00 0.00 0.00 0.00 0.00 0.00 0.00 0.00 0.00 0.00 0.00 0.00 0.05 0.16 0.28 0.40 0.66 1.09 0.77 0.45 0.40 0.31 0.24 0.20 0.20 0.23 0.25 0.26 0.27 0.28
0.11 0.02 0.00 0.01 0.00 0.00 0.00 0.00 0.00 0.00 0.00 0.00 0.00 0.00 0.00 0.00 0.00 0.00 0.00 0.00 0.00 0.00 0.00 0.00 0.00 0.00 0.00 0.02 0.12 0.28 0.53 0.85 0.56 0.37 0.30 0.25 0.23 0.25 0.29 0.29 0.29 0.29 0.29
0.27 0.16 0.08 0.05 0.02 0.00 0.00 0.00 0.00 0.00 0.00 0.00 0.00 0.00 0.00 0.00 0.00 0.00 0.00 0.00 0.00 0.00 0.00 0.01 0.03 0.06 0.03 0.05 0.04 0.05 0.15 0.30 0.43 0.51 0.58 0.65 0.53 0.39 0.35 0.33 0.40 0.41 0.41
0.73 0.39 0.23 0.23 0.10 0.02 0.01 0.00 0.01 0.01 0.01 0.01 0.02 0.04 0.03 0.01 0.00 0.00 0.01 0.00 0.00 0.01 0.03 0.07 0.12 0.12 0.07 0.04 0.04 0.04 0.05 0.09 0.29 0.41 0.43 0.51 0.71 0.61 0.53 0.47 0.48 0.48 0.51
1.44 1.04 0.78 0.67 0.50 0.31 0.36 0.28 0.32 0.30 0.23 0.22 0.18 0.23 0.23 0.19 0.14 0.05 0.05 0.05 0.08 0.07 0.07 0.05 0.05 0.05 0.04 0.05 0.09 0.11 0.14 0.18 0.32 0.51 0.47 0.45 0.53 0.62 0.67 0.69 0.75 0.76 0.81
1.51 1.67 1.63 1.36 1.18 1.09 0.94 1.00 0.83 0.91 0.98 0.85 0.72 0.57 0.57 0.45 0.41 0.23 0.07 0.08 0.07 0.06 0.06 0.03 0.03 0.05 0.09 0.16 0.26 0.35 0.40 0.40 0.41 0.51 0.77 0.82 0.82 0.90 0.92 1.00 1.13 1.26 1.22
1.21 1.42 1.59 1.70 1.67 1.72 1.66 1.67 1.62 1.49 1.30 1.07 0.85 0.77 0.64 0.57 0.57 0.76 0.59 0.31 0.25 0.13 0.06 0.07 0.09 0.12 0.18 0.28 0.37 0.42 0.45 0.46 0.51 0.60 0.85 1.01 1.06 1.07 1.21 1.52 1.66 1.71 1.72
1.50 1.61 1.79 1.75 1.78 1.54 1.30 1.32 1.41 1.15 0.90 0.72 0.63 0.71 0.83 0.82 0.62 0.62 0.53 0.26 0.17 0.09 0.06 0.06 0.09 0.11 0.12 0.17 0.26 0.36 0.45 0.54 0.70 0.80 0.96 1.24 1.29 1.39 1.68 2.01 2.16 2.33 2.30
0.92 0.96 0.97 1.15 1.17 1.05 0.83 0.73 0.68 0.58 0.49 0.51 0.56 0.54 0.53 0.53 0.50 0.50 0.54 0.42 0.32 0.22 0.21 0.18 0.19 0.20 0.19 0.23 0.36 0.56 0.64 0.73 0.78 0.88 1.13 1.35 1.19 1.15 1.15 1.14 1.27 1.77 2.10
0.55 0.62 0.58 0.72 0.75 0.66 0.61 0.45 0.40 0.42 0.43 0.48 0.52 0.53 0.54 0.47 0.49 0.49 0.48 0.52 0.44 0.29 0.25 0.22 0.22 0.31 0.46 0.62 0.77 0.82 0.73 0.80 0.79 0.85 0.86 0.83 0.63 0.55 0.45 0.46 0.55 0.67 1.02
0.66 0.53 0.69 0.66 0.57 0.51 0.44 0.39 0.36 0.34 0.35 0.40 0.44 0.50 0.50 0.47 0.48 0.50 0.55 0.72 1.01 0.85 0.60 0.54 0.60 0.65 0.70 0.70 0.69 0.64 0.62 0.68 0.54 0.38 0.30 0.24 0.21 0.23 0.27 0.30 0.33 0.46 0.58
0.84 0.69 0.56 0.62 0.65 0.53 0.52 0.33 0.24 0.23 0.26 0.29 0.35 0.45 0.48 0.45 0.47 0.50 0.57 0.62 0.79 1.08 0.96 0.62 0.64 0.71 0.76 0.70 0.64 0.45 0.34 0.37 0.30 0.27 0.25 0.23 0.19 0.20 0.20 0.22 0.24 0.32 0.46
0.72 0.70 0.64 0.52 0.47 0.46 0.37 0.42 0.21 0.15 0.17 0.21 0.24 0.28 0.29 0.33 0.37 0.43 0.50 0.56 0.64 0.86 0.97 0.69 0.58 0.48 0.35 0.21 0.14 0.16 0.15 0.12 0.12 0.20 0.19 0.19 0.18 0.18 0.17 0.18 0.20 0.26 0.34
0.63 0.64 0.58 0.64 0.56 0.48 0.42 0.37 0.30 0.19 0.15 0.12 0.13 0.15 0.18 0.22 0.26 0.35 0.42 0.46 0.54 0.60 0.67 0.47 0.24 0.21 0.16 0.12 0.09 0.10 0.10 0.12 0.12 0.16 0.14 0.14 0.16 0.19 0.21 0.20 0.19 0.21 0.26
0.75 0.64 0.66 0.61 0.51 0.54 0.52 0.47 0.41 0.43 0.39 0.33 0.29 0.28 0.33 0.42 0.44 0.52 0.64 0.68 0.69 0.66 0.62 0.59 0.31 0.18 0.16 0.14 0.14 0.14 0.15 0.15 0.15 0.23 0.21 0.21 0.24 0.24 0.25 0.27 0.33 0.40 0.44
1.15 0.82 0.78 0.82 0.89 0.76 0.70 0.70 0.61 0.54 0.51 0.47 0.44 0.47 0.53 0.55 0.53 0.53 0.56 0.52 0.56 0.51 0.47 0.47 0.45 0.34 0.24 0.20 0.26 0.22 0.17 0.16 0.18 0.22 0.29 0.33 0.40 0.45 0.47 0.49 0.50 0.44 0.40
1.23 1.10 0.99 1.04 1.04 1.20 1.23 1.20 1.09 1.00 0.95 0.88 0.82 0.74 0.63 0.60 0.51 0.44 0.47 0.42 0.44 0.44 0.53 0.69 0.67 0.57 0.53 0.45 0.38 0.38 0.52 0.52 0.49 0.43 0.39 0.40 0.45 0.49 0.46 0.47 0.48 0.46 0.47
1.16 1.43 1.19 1.11 1.13 1.06 1.38 1.45 1.35 1.20 1.22 1.24 1.09 0.88 0.76 0.76 0.66 0.66 0.69 0.62 0.55 0.64 0.75 0.85 0.80 0.66 0.46 0.46 0.50 0.65 0.83 0.94 0.86 0.38 0.31 0.41 0.41 0.45 0.44 0.47 0.55 0.48 0.45
1.67 1.84 1.83 1.43 1.55 1.61 1.62 1.52 1.71 1.67 1.47 1.32 1.20 1.11 1.01 0.92 0.88 0.81 0.75 0.77 0.89 1.11 1.10 0.87 0.71 0.57 0.56 0.50 0.74 0.99 0.96 0.91 0.74 0.42 0.49 0.61 0.49 0.53 0.52 0.53 0.60 0.53 0.52
1.27 1.21 1.64 1.84 1.85 1.90 1.76 1.45 1.39 1.36 1.44 1.43 1.38 1.30 1.15 1.03 1.02 1.07 1.04 1.20 1.13 1.00 0.88 0.86 0.87 0.81 0.85 0.91 1.01 1.20 1.14 1.17 0.92 0.62 0.52 0.62 0.35 0.38 0.39 0.43 0.57 0.43 0.37
0.82 0.74 0.71 0.68 0.68 0.62 0.67 0.58 0.58 0.56 0.63 0.69 0.76 0.82 0.93 0.96 1.03 1.06 1.10 1.16 0.90 0.82 0.88 0.88 0.87 0.84 0.83 0.78 0.76 1.05 1.23 1.16 1.03 0.64 0.49 0.55 0.43 0.39 0.35 0.33 0.43 0.48 0.45
0.56 0.45 0.36 0.26 0.28 0.34 0.40 0.36 0.33 0.32 0.34 0.38 0.42 0.40 0.46 0.46 0.58 0.84 0.68 0.57 0.63 0.59 0.66 0.62 0.54 0.52 0.53 0.58 0.69 0.75 1.12 1.78 1.34 1.12 0.61 0.96 0.71 0.55 0.82 0.37 0.43 0.53 0.45

GFSMA_prec_precacc_141.txt.gz
Total_Precipitation_Accumulation
0.03 0.06 0.03 0.01 0.00 0.00 0.00 0.00 0.00 0.00 0.00 0.00 0.00 0.00 0.00 0.00 0.00 0.00 0.00 0.00 0.00 0.00 0.00 0.01 0.01 0.01 0.04 0.07 0.11 0.13 0.14 0.12 0.10 0.09 0.09 0.09 0.09 0.11 0.12 0.14 0.15 0.16 0.15
0.01 0.01 0.00 0.00 0.00 0.00 0.00 0.00 0.00 0.00 0.00 0.00 0.00 0.00 0.00 0.00 0.00 0.00 0.00 0.00 0.00 0.00 0.00 0.01 0.03 0.01 0.02 0.04 0.07 0.12 0.11 0.09 0.08 0.08 0.08 0.09 0.09 0.10 0.12 0.13 0.15 0.16 0.18
0.06 0.01 0.00 0.00 0.00 0.00 0.00 0.00 0.00 0.00 0.00 0.00 0.00 0.00 0.00 0.00 0.00 0.00 0.00 0.00 0.00 0.00 0.00 0.03 0.22 0.20 0.12 0.14 0.29 0.23 0.16 0.12 0.11 0.12 0.13 0.13 0.13 0.13 0.13 0.15 0.16 0.16 0.17
0.06 0.03 0.00 0.00 0.00 0.00 0.00 0.00 0.00 0.00 0.00 0.00 0.00 0.00 0.00 0.00 0.00 0.00 0.00 0.00 0.00 0.00 0.00 0.00 0.10 0.31 0.45 0.45 0.63 0.90 0.70 0.44 0.30 0.22 0.18 0.15 0.17 0.17 0.19 0.19 0.20 0.21 0.21
0.04 0.04 0.00 0.01 0.00 0.00 0.00 0.00 0.00 0.00 0.00 0.00 0.00 0.00 0.00 0.00 0.00 0.00 0.00 0.00 0.00 0.00 0.00 0.00 0.00 0.05 0.16 0.28 0.40 0.66 1.09 0.77 0.45 0.41 0.31 0.24 0.22 0.20 0.23 0.25 0.26 0.27 0.28
0.14 0.07 0.04 0.02 0.03 0.00 0.00 0.00 0.00 0.00 0.00 0.00 0.00 0.00 0.00 0.00 0.00 0.00 0.00 0.00 0.00 0.00 0.00 0.00 0.00 0.00 0.00 0.02 0.12 0.28 0.53 0.85 0.56 0.37 0.30 0.25 0.23 0.25 0.29 0.29 0.29 0.29 0.29
0.30 0.19 0.10 0.06 0.04 0.00 0.00 0.00 0.00 0.00 0.00 0.00 0.00 0.00 0.00 0.00 0.00 0.00 0.00 0.00 0.00 0.00 0.00 0.01 0.03 0.06 0.03 0.05 0.04 0.05 0.15 0.30 0.43 0.51 0.58 0.65 0.53 0.39 0.35 0.33 0.40 0.41 0.41
0.76 0.41 0.24 0.24 0.11 0.02 0.01 0.00 0.01 0.01 0.01 0.01 0.02 0.04 0.03 0.01 0.00 0.00 0.01 0.00 0.00 0.01 0.03 0.07 0.12 0.12 0.07 0.04 0.04 0.04 0.05 0.09 0.29 0.42 0.43 0.51 0.71 0.61 0.53 0.47 0.48 0.48 0.51
1.47 1.06 0.80 0.68 0.54 0.32 0.38 0.28 0.32 0.30 0.23 0.22 0.18 0.23 0.23 0.19 0.14 0.05 0.05 0.05 0.08 0.07 0.07 0.05 0.05 0.05 0.04 0.05 0.09 0.11 0.14 0.18 0.32 0.51 0.47 0.45 0.53 0.62 0.68 0.70 0.76 0.76 0.81
1.52 1.70 1.66 1.38 1.19 1.11 0.95 1.01 0.83 0.91 0.98 0.85 0.72 0.57 0.57 0.45 0.41 0.23 0.07 0.08 0.07 0.06 0.06 0.03 0.03 0.05 0.09 0.16 0.26 0.35 0.40 0.40 0.41 0.51 0.77 0.82 0.82 0.90 0.92 1.00 1.13 1.27 1.22
1.22 1.46 1.61 1.72 1.68 1.74 1.68 1.69 1.62 1.49 1.31 1.07 0.85 0.77 0.64 0.57 0.57 0.76 0.59 0.31 0.25 0.13 0.06 0.07 0.09 0.12 0.18 0.28 0.37 0.42 0.45 0.46 0.51 0.60 0.85 1.01 1.06 1.07 1.21 1.52 1.67 1.72 1.73
1.50 1.65 1.85 1.82 1.81 1.56 1.32 1.38 1.44 1.16 0.91 0.73 0.63 0.71 0.83 0.82 0.62 0.62 0.53 0.26 0.17 0.09 0.06 0.06 0.09 0.11 0.12 0.17 0.26 0.36 0.45 0.54 0.70 0.80 0.96 1.24 1.29 1.39 1.68 2.01 2.16 2.34 2.31
0.93 0.97 1.01 1.23 1.26 1.09 0.84 0.75 0.71 0.61 0.51 0.52 0.56 0.54 0.54 0.53 0.50 0.50 0.54 0.42 0.32 0.22 0.21 0.18 0.19 0.20 0.19 0.23 0.36 0.56 0.64 0.73 0.78 0.88 1.13 1.35 1.19 1.15 1.15 1.14 1.27 1.78 2.11
0.55 0.62 0.60 0.78 0.82 0.74 0.64 0.47 0.41 0.44 0.46 0.51 0.54 0.54 0.55 0.48 0.50 0.49 0.48 0.52 0.44 0.29 0.25 0.22 0.22 0.31 0.46 0.62 0.77 0.82 0.73 0.80 0.79 0.85 0.86 0.83 0.63 0.55 0.45 0.46 0.55 0.67 1.02
0.66 0.54 0.71 0.69 0.63 0.58 0.49 0.42 0.39 0.37 0.38 0.42 0.44 0.51 0.53 0.48 0.49 0.50 0.55 0.72 1.01 0.85 0.60 0.54 0.60 0.65 0.70 0.71 0.70 0.64 0.62 0.68 0.54 0.38 0.30 0.24 0.21 0.23 0.27 0.30 0.33 0.46 0.58
0.84 0.69 0.57 0.65 0.70 0.58 0.56 0.39 0.28 0.26 0.28 0.31 0.36 0.45 0.49 0.46 0.48 0.50 0.58 0.63 0.79 1.09 0.97 0.62 0.64 0.71 0.78 0.72 0.65 0.46 0.34 0.37 0.30 0.27 0.25 0.23 0.19 0.20 0.20 0.22 0.24 0.32 0.46
0.72 0.70 0.65 0.55 0.50 0.52 0.42 0.46 0.26 0.18 0.18 0.21 0.24 0.28 0.29 0.33 0.39 0.45 0.51 0.57 0.65 0.86 0.98 0.70 0.60 0.49 0.38 0.22 0.16 0.17 0.16 0.12 0.13 0.20 0.19 0.19 0.18 0.18 0.17 0.18 0.20 0.26 0.34
0.63 0.64 0.59 0.68 0.62 0.56 0.51 0.43 0.32 0.21 0.17 0.13 0.13 0.15 0.18 0.22 0.27 0.35 0.42 0.47 0.55 0.61 0.68 0.51 0.29 0.25 0.19 0.14 0.11 0.12 0.12 0.13 0.13 0.16 0.15 0.14 0.16 0.19 0.21 0.20 0.19 0.21 0.26
0.75 0.64 0.66 0.61 0.53 0.61 0.62 0.55 0.46 0.45 0.41 0.34 0.30 0.29 0.34 0.42 0.45 0.53 0.65 0.69 0.70 0.68 0.64 0.64 0.38 0.21 0.18 0.16 0.17 0.17 0.16 0.16 0.16 0.24 0.22 0.22 0.24 0.24 0.25 0.27 0.33 0.40 0.44
1.17 0.83 0.78 0.82 0.89 0.76 0.72 0.75 0.67 0.56 0.52 0.47 0.44 0.48 0.54 0.56 0.54 0.55 0.58 0.54 0.59 0.57 0.54 0.53 0.51 0.39 0.26 0.22 0.30 0.29 0.23 0.21 0.24 0.31 0.40 0.41 0.44 0.46 0.47 0.49 0.50 0.44 0.40
1.26 1.14 1.01 1.05 1.05 1.20 1.23 1.20 1.11 1.01 0.96 0.89 0.83 0.75 0.66 0.68 0.64 0.58 0.60 0.54 0.58 0.59 0.71 0.84 0.80 0.69 0.61 0.50 0.44 0.45 0.63 0.65 0.63 0.56 0.51 0.49 0.50 0.51 0.47 0.48 0.48 0.46 0.47
1.30 1.55 1.25 1.16 1.15 1.08 1.40 1.47 1.37 1.22 1.25 1.28 1.15 0.98 0.88 0.97 0.85 0.85 0.85 0.81 0.78 0.92 1.06 1.16 1.06 0.86 0.61 0.54 0.58 0.78 1.00 1.17 1.09 0.49 0.39 0.52 0.51 0.51 0.46 0.48 0.56 0.48 0.45
1.77 1.94 1.88 1.46 1.58 1.70 1.74 1.60 1.81 1.73 1.54 1.40 1.27 1.15 1.06 1.02 1.03 0.95 0.92 0.96 1.08 1.32 1.34 1.12 0.97 0.77 0.74 0.63 0.89 1.15 1.12 1.07 0.91 0.56 0.61 0.76 0.60 0.59 0.55 0.56 0.62 0.53 0.52
1.65 1.71 1.90 2.08 2.09 2.24 2.06 1.63 1.58 1.50 1.52 1.47 1.41 1.35 1.23 1.11 1.10 1.15 1.11 1.27 1.21 1.07 0.95 0.94 0.99 0.94 1.00 1.08 1.21 1.38 1.27 1.31 1.08 0.75 0.64 0.75 0.43 0.43 0.44 0.48 0.63 0.45 0.38
1.19 1.17 0.98 0.94 0.94 0.82 0.85 0.72 0.67 0.59 0.66 0.72 0.78 0.83 0.94 0.98 1.06 1.09 1.11 1.17 0.90 0.83 0.88 0.88 0.88 0.84 0.84 0.80 0.79 1.09 1.27 1.19 1.08 0.71 0.57 0.64 0.50 0.47 0.46 0.42 0.49 0.54 0.49
0.78 0.62 0.47 0.33 0.35 0.38 0.43 0.39 0.35 0.32 0.34 0.38 0.42 0.40 0.46 0.46 0.58 0.84 0.68 0.57 0.63 0.59 0.66 0.62 0.54 0.52 0.53 0.59 0.70 0.75 1.12 1.78 1.35 1.14 0.65 1.04 0.78 0.68 1.01 0.49 0.50 0.58 0.49

GFSMA_prec_precacc_147.txt.gz
Total_Precipitation_Accumulation
0.06 0.08 0.05 0.01 0.00 0.00 0.00 0.00 0.00 0.00 0.00 0.00 0.00 0.00 0.00 0.00 0.00 0.00 0.00 0.00 0.00 0.00 0.00 0.01 0.01 0.01 0.04 0.07 0.11 0.13 0.14 0.12 0.10 0.09 0.09 0.09 0.09 0.11 0.12 0.14 0.15 0.16 0.15
0.02 0.03 0.01 0.00 0.00 0.00 0.00 0.00 0.00 0.00 0.00 0.00 0.00 0.00 0.00 0.00 0.00 0.00 0.00 0.00 0.00 0.00 0.00 0.01 0.03 0.01 0.02 0.04 0.07 0.12 0.11 0.09 0.08 0.08 0.08 0.09 0.09 0.10 0.12 0.13 0.15 0.16 0.18
0.06 0.03 0.02 0.00 0.00 0.00 0.00 0.00 0.00 0.00 0.00 0.00 0.00 0.00 0.00 0.00 0.00 0.00 0.00 0.00 0.00 0.00 0.00 0.03 0.22 0.20 0.12 0.15 0.30 0.27 0.17 0.13 0.11 0.12 0.13 0.14 0.13 0.13 0.13 0.16 0.17 0.17 0.18
0.06 0.06 0.04 0.01 0.00 0.00 0.00 0.00 0.00 0.00 0.00 0.00 0.00 0.00 0.00 0.00 0.00 0.00 0.00 0.00 0.00 0.00 0.00 0.00 0.10 0.31 0.45 0.46 0.64 0.92 0.71 0.44 0.30 0.22 0.18 0.15 0.18 0.19 0.22 0.20 0.20 0.21 0.22
0.06 0.06 0.05 0.04 0.03 0.01 0.01 0.00 0.00 0.00 0.00 0.00 0.00 0.00 0.00 0.00 0.00 0.00 0.00 0.00 0.00 0.00 0.00 0.00 0.00 0.05 0.16 0.28 0.40 0.66 1.09 0.77 0.45 0.41 0.31 0.25 0.22 0.21 0.23 0.25 0.26 0.27 0.28
0.24 0.18 0.09 0.06 0.12 0.03 0.00 0.00 0.00 0.00 0.00 0.00 0.00 0.00 0.00 0.00 0.00 0.00 0.00 0.00 0.00 0.00 0.00 0.00 0.00 0.00 0.00 0.02 0.12 0.28 0.53 0.85 0.56 0.37 0.30 0.25 0.23 0.25 0.29 0.29 0.29 0.29 0.29
0.38 0.31 0.16 0.09 0.13 0.06 0.00 0.00 0.00 0.00 0.00 0.00 0.00 0.00 0.00 0.00 0.00 0.00 0.00 0.00 0.00 0.00 0.00 0.01 0.03 0.06 0.03 0.05 0.04 0.05 0.15 0.30 0.43 0.51 0.58 0.65 0.53 0.39 0.35 0.33 0.40 0.41 0.41
0.78 0.44 0.27 0.26 0.16 0.07 0.04 0.02 0.03 0.01 0.01 0.01 0.02 0.04 0.03 0.01 0.00 0.00 0.01 0.00 0.00 0.01 0.03 0.07 0.12 0.12 0.07 0.04 0.04 0.04 0.05 0.09 0.29 0.42 0.44 0.51 0.71 0.61 0.53 0.47 0.48 0.48 0.52
1.48 1.09 0.85 0.75 0.59 0.40 0.44 0.31 0.36 0.31 0.23 0.22 0.18 0.23 0.23 0.19 0.14 0.05 0.05 0.05 0.08 0.07 0.07 0.05 0.05 0.05 0.04 0.05 0.09 0.11 0.14 0.18 0.32 0.51 0.47 0.46 0.54 0.62 0.68 0.70 0.76 0.77 0.81
1.52 1.71 1.73 1.50 1.29 1.22 1.04 1.07 0.87 0.94 0.99 0.85 0.73 0.58 0.57 0.45 0.41 0.23 0.07 0.08 0.07 0.06 0.06 0.03 0.03 0.05 0.09 0.16 0.26 0.35 0.40 0.40 0.41 0.51 0.77 0.83 0.83 0.91 0.93 1.01 1.14 1.28 1.23
1.22 1.46 1.64 1.80 1.79 1.86 1.81 1.85 1.75 1.56 1.33 1.07 0.86 0.78 0.64 0.57 0.57 0.76 0.59 0.31 0.25 0.13 0.06 0.07 0.09 0.12 0.18 0.28 0.37 0.42 0.45 0.46 0.51 0.60 0.85 1.01 1.07 1.08 1.22 1.53 1.68 1.73 1.74
1.50 1.65 1.87 1.85 1.87 1.65 1.46 1.55 1.62 1.31 1.00 0.77 0.64 0.74 0.86 0.83 0.63 0.62 0.53 0.26 0.17 0.09 0.06 0.06 0.09 0.11 0.12 0.17 0.26 0.36 0.45 0.54 0.70 0.80 0.96 1.24 1.29 1.39 1.69 2.01 2.16 2.34 2.32
0.93 0.97 1.02 1.25 1.29 1.14 0.92 0.89 0.89 0.81 0.72 0.64 0.62 0.58 0.57 0.57 0.53 0.52 0.54 0.42 0.32 0.22 0.21 0.18 0.19 0.20 0.19 0.23 0.36 0.56 0.64 0.73 0.78 0.88 1.13 1.35 1.19 1.15 1.15 1.14 1.27 1.78 2.11
0.55 0.62 0.60 0.79 0.87 0.83 0.76 0.59 0.55 0.60 0.65 0.74 0.68 0.63 0.61 0.53 0.55 0.55 0.53 0.56 0.50 0.32 0.26 0.22 0.22 0.32 0.46 0.62 0.77 0.82 0.73 0.80 0.79 0.85 0.86 0.83 0.63 0.55 0.45 0.46 0.55 0.67 1.02
0.66 0.54 0.71 0.70 0.65 0.65 0.61 0.57 0.53 0.55 0.57 0.57 0.61 0.70 0.71 0.62 0.66 0.71 0.79 0.94 1.25 1.11 0.72 0.56 0.62 0.66 0.72 0.71 0.70 0.64 0.62 0.68 0.54 0.38 0.30 0.24 0.21 0.23 0.27 0.30 0.33 0.46 0.58
0.84 0.69 0.57 0.65 0.72 0.64 0.66 0.51 0.40 0.37 0.48 0.54 0.55 0.61 0.65 0.60 0.62 0.71 0.87 0.99 1.17 1.44 1.26 0.68 0.67 0.73 0.80 0.75 0.68 0.48 0.35 0.38 0.31 0.29 0.26 0.23 0.19 0.20 0.20 0.22 0.24 0.32 0.46
0.72 0.70 0.65 0.55 0.51 0.53 0.47 0.53 0.34 0.28 0.28 0.31 0.36 0.39 0.40 0.47 0.52 0.57 0.63 0.73 0.85 1.11 1.21 0.75 0.61 0.50 0.38 0.22 0.16 0.17 0.16 0.12 0.13 0.21 0.20 0.20 0.18 0.18 0.17 0.18 0.20 0.26 0.34
0.63 0.64 0.59 0.68 0.62 0.56 0.54 0.51 0.44 0.32 0.28 0.22 0.22 0.23 0.28 0.32 0.36 0.45 0.49 0.52 0.59 0.65 0.74 0.54 0.30 0.25 0.19 0.14 0.11 0.12 0.12 0.13 0.13 0.16 0.16 0.15 0.17 0.20 0.21 0.20 0.19 0.21 0.26
0.75 0.64 0.66 0.61 0.53 0.61 0.62 0.59 0.54 0.57 0.52 0.43 0.40 0.40 0.41 0.51 0.53 0.61 0.72 0.73 0.72 0.70 0.67 0.65 0.39 0.22 0.18 0.16 0.17 0.18 0.18 0.17 0.17 0.26 0.24 0.24 0.26 0.26 0.27 0.29 0.34 0.41 0.44
1.17 0.84 0.79 0.83 0.90 0.78 0.73 0.76 0.73 0.70 0.62 0.58 0.55 0.57 0.62 0.64 0.65 0.65 0.66 0.60 0.64 0.60 0.56 0.55 0.55 0.44 0.30 0.26 0.38 0.38 0.35 0.32 0.34 0.39 0.45 0.45 0.49 0.50 0.51 0.52 0.52 0.46 0.42
1.31 1.22 1.07 1.11 1.10 1.26 1.27 1.25 1.16 1.08 1.07 1.05 1.01 0.92 0.78 0.79 0.77 0.70 0.68 0.59 0.64 0.70 0.86 1.04 1.00 0.89 0.81 0.69 0.60 0.57 0.77 0.75 0.72 0.62 0.56 0.55 0.56 0.59 0.54 0.55 0.55 0.50 0.51
1.38 1.63 1.36 1.28 1.28 1.16 1.47 1.52 1.42 1.27 1.32 1.34 1.22 1.07 0.99 1.08 0.94 0.94 0.92 0.89 0.87 1.01 1.15 1.29 1.20 1.02 0.73 0.65 0.66 0.87 1.11 1.27 1.20 0.53 0.42 0.58 0.57 0.60 0.53 0.53 0.62 0.56 0.51
1.77 1.97 1.94 1.50 1.61 1.73 1.79 1.65 1.90 1.82 1.63 1.47 1.34 1.20 1.10 1.07 1.11 1.01 1.04 1.08 1.19 1.47 1.46 1.21 1.06 0.88 0.84 0.72 0.97 1.20 1.16 1.10 0.94 0.58 0.64 0.81 0.61 0.60 0.55 0.56 0.67 0.59 0.59
1.66 1.76 1.93 2.10 2.12 2.29 2.11 1.68 1.64 1.55 1.56 1.51 1.46 1.41 1.29 1.18 1.18 1.22 1.17 1.34 1.29 1.15 1.04 1.01 1.03 0.98 1.03 1.09 1.23 1.42 1.31 1.34 1.10 0.76 0.66 0.77 0.43 0.44 0.44 0.49 0.69 0.53 0.45
1.26 1.32 1.10 1.04 1.11 1.01 1.17 1.07 1.00 0.87 0.79 0.80 0.89 0.95 1.06 1.08 1.21 1.22 1.17 1.23 0.96 0.86 0.93 0.93 0.90 0.85 0.85 0.80 0.79 1.09 1.27 1.19 1.08 0.71 0.57 0.64 0.50 0.47 0.46 0.42 0.51 0.61 0.56
0.91 0.87 0.73 0.54 0.59 0.60 0.70 0.74 0.74 0.69 0.55 0.50 0.52 0.51 0.58 0.54 0.69 0.92 0.72 0.60 0.63 0.59 0.66 0.62 0.54 0.52 0.53 0.59 0.70 0.75 1.12 1.78 1.35 1.15 0.65 1.04 0.78 0.68 1.01 0.49 0.50 0.60 0.54